| time (UTC) | temp F | wind direction | speed MPH | gust MPH | rain 1hr in | rain 24hr in | rain mn in | humidity % | barometer mb |
| 20260502170517 | 70 | 347 | 0.0 | 0.0 | 0.00 | 0.00 | 0.00 | 72 | 1015.9 |
| 20260502170408 | 70 | 55 | 0.0 | 0.0 | 0.00 | 0.00 | 0.00 | 72 | 1015.9 |
| 20260502170309 | 70 | 44 | 0.0 | 0.0 | 0.00 | 0.00 | 0.00 | 72 | 1015.9 |
| 20260502170221 | 70 | 292 | 0.0 | 0.0 | 0.00 | 0.00 | 0.00 | 72 | 1015.9 |
| 20260502170121 | 69 | 38 | 0.0 | 0.0 | 0.00 | 0.00 | 0.00 | 73 | 1016.0 |
| 20260502164307 | 67 | 31 | 2.0 | 0.0 | 0.00 | 0.00 | 0.00 | 74 | 1016.0 |
| 20260502164222 | 67 | 297 | 2.0 | 0.0 | 0.00 | 0.00 | 0.00 | 74 | 1016.0 |
| 20260502164102 | 67 | 297 | 2.0 | 0.0 | 0.00 | 0.00 | 0.00 | 74 | 1016.0 |
| 20260502164014 | 67 | 296 | 2.0 | 0.0 | 0.00 | 0.00 | 0.00 | 74 | 1016.0 |
| 20260502163919 | 67 | 342 | 2.0 | 0.0 | 0.00 | 0.00 | 0.00 | 75 | 1016.0 |
| 20260502163612 | 67 | 14 | 1.0 | 0.0 | 0.00 | 0.00 | 0.00 | 74 | 1016.0 |
| 20260502163524 | 67 | 26 | 1.0 | 0.0 | 0.00 | 0.00 | 0.00 | 74 | 1016.0 |
| 20260502163428 | 67 | 67 | 1.0 | 0.0 | 0.00 | 0.00 | 0.00 | 74 | 1016.0 |
| 20260502163328 | 67 | 28 | 0.0 | 0.0 | 0.00 | 0.00 | 0.00 | 75 | 1016.0 |
| 20260502163203 | 67 | 25 | 0.0 | 0.0 | 0.00 | 0.00 | 0.00 | 76 | 1016.0 |
| 20260502163117 | 66 | 13 | 0.0 | 0.0 | 0.00 | 0.00 | 0.00 | 76 | 1015.9 |
| 20260502163018 | 66 | 26 | 0.0 | 0.0 | 0.00 | 0.00 | 0.00 | 76 | 1015.9 |
| 20260502162909 | 66 | 343 | 0.0 | 0.0 | 0.00 | 0.00 | 0.00 | 76 | 1015.9 |
| 20260502162805 | 66 | 293 | 0.0 | 0.0 | 0.00 | 0.00 | 0.00 | 76 | 1015.9 |
| 20260502162706 | 65 | 334 | 0.0 | 0.0 | 0.00 | 0.00 | 0.00 | 77 | 1015.9 |
| 20260502162618 | 65 | 40 | 0.0 | 0.0 | 0.00 | 0.00 | 0.00 | 77 | 1015.9 |
| 20260502162525 | 65 | 15 | 0.0 | 0.0 | 0.00 | 0.00 | 0.00 | 77 | 1015.9 |
| 20260502162424 | 65 | 295 | 0.0 | 0.0 | 0.00 | 0.00 | 0.00 | 77 | 1015.9 |
| 20260502162304 | 65 | 328 | 0.0 | 0.0 | 0.00 | 0.00 | 0.00 | 77 | 1015.9 |
| 20260502162224 | 64 | 50 | 0.0 | 0.0 | 0.00 | 0.00 | 0.00 | 76 | 1015.9 |
| 20260502162116 | 65 | 34 | 0.0 | 0.0 | 0.00 | 0.00 | 0.00 | 76 | 1015.9 |
| 20260502162007 | 65 | 67 | 0.0 | 0.0 | 0.00 | 0.00 | 0.00 | 76 | 1015.9 |
| 20260502161912 | 65 | 31 | 0.0 | 0.0 | 0.00 | 0.00 | 0.00 | 77 | 1015.9 |
| 20260502161809 | 65 | 30 | 0.0 | 0.0 | 0.00 | 0.00 | 0.00 | 77 | 1015.9 |
| 20260502161705 | 65 | 345 | 0.0 | 0.0 | 0.00 | 0.00 | 0.00 | 77 | 1015.9 |
| 20260502161626 | 65 | 17 | 0.0 | 0.0 | 0.00 | 0.00 | 0.00 | 77 | 1015.9 |
| 20260502161526 | 65 | 17 | 0.0 | 0.0 | 0.00 | 0.00 | 0.00 | 77 | 1015.9 |
| 20260502161418 | 64 | 15 | 1.0 | 0.0 | 0.00 | 0.00 | 0.00 | 78 | 1015.9 |
| 20260502161339 | 64 | 36 | 1.0 | 0.0 | 0.00 | 0.00 | 0.00 | 77 | 1015.9 |
| 20260502161208 | 64 | 305 | 1.0 | 0.0 | 0.00 | 0.00 | 0.00 | 78 | 1015.9 |
| 20260502161115 | 64 | 28 | 2.0 | 0.0 | 0.00 | 0.00 | 0.00 | 78 | 1015.9 |
| 20260502161009 | 64 | 23 | 2.0 | 0.0 | 0.00 | 0.00 | 0.00 | 77 | 1015.9 |
| 20260502160906 | 64 | 309 | 2.0 | 0.0 | 0.00 | 0.00 | 0.00 | 78 | 1015.9 |
| 20260502160807 | 64 | 296 | 2.0 | 0.0 | 0.00 | 0.00 | 0.00 | 78 | 1015.9 |
| 20260502160720 | 64 | 294 | 2.0 | 0.0 | 0.00 | 0.00 | 0.00 | 78 | 1015.9 |
| 20260502160622 | 64 | 350 | 2.0 | 0.0 | 0.00 | 0.00 | 0.00 | 77 | 1015.9 |
| 20260502160515 | 64 | 37 | 1.0 | 0.0 | 0.00 | 0.00 | 0.00 | 78 | 1015.9 |
| 20260502160415 | 64 | 34 | 1.0 | 0.0 | 0.00 | 0.00 | 0.00 | 77 | 1015.9 |
| 20260502160307 | 64 | 36 | 1.0 | 0.0 | 0.00 | 0.00 | 0.00 | 78 | 1015.9 |
| 20260502160227 | 64 | 48 | 1.0 | 0.0 | 0.00 | 0.00 | 0.00 | 77 | 1015.9 |
| 20260502160107 | 64 | 13 | 0.0 | 0.0 | 0.00 | 0.00 | 0.00 | 77 | 1015.8 |
| 20260502152318 | 62 | 30 | 0.0 | 0.0 | 0.00 | 0.00 | 0.00 | 79 | 1015.5 |
| 20260502152210 | 62 | 25 | 0.0 | 0.0 | 0.00 | 0.00 | 0.00 | 79 | 1015.5 |
| 20260502152107 | 62 | 27 | 0.0 | 0.0 | 0.00 | 0.00 | 0.00 | 79 | 1015.5 |
| 20260502152008 | 62 | 30 | 0.0 | 0.0 | 0.00 | 0.00 | 0.00 | 79 | 1015.5 |
| 20260502151903 | 62 | 19 | 0.0 | 0.0 | 0.00 | 0.00 | 0.00 | 79 | 1015.5 |
| 20260502151827 | 62 | 19 | 0.0 | 0.0 | 0.00 | 0.00 | 0.00 | 79 | 1015.5 |
| 20260502151736 | 62 | 296 | 0.0 | 0.0 | 0.00 | 0.00 | 0.00 | 78 | 1015.5 |
| 20260502151603 | 62 | 26 | 0.0 | 0.0 | 0.00 | 0.00 | 0.00 | 79 | 1015.3 |
| 20260502151516 | 62 | 26 | 0.0 | 0.0 | 0.00 | 0.00 | 0.00 | 79 | 1015.3 |
| 20260502151417 | 62 | 281 | 0.0 | 0.0 | 0.00 | 0.00 | 0.00 | 78 | 1015.3 |
| 20260502151313 | 62 | 281 | 0.0 | 0.0 | 0.00 | 0.00 | 0.00 | 78 | 1015.3 |
| 20260502151208 | 62 | 281 | 0.0 | 0.0 | 0.00 | 0.00 | 0.00 | 79 | 1015.3 |
| 20260502151110 | 62 | 346 | 0.0 | 0.0 | 0.00 | 0.00 | 0.00 | 79 | 1015.3 |
| 20260502151022 | 62 | 37 | 0.0 | 0.0 | 0.00 | 0.00 | 0.00 | 79 | 1015.3 |
| 20260502150924 | 62 | 35 | 0.0 | 0.0 | 0.00 | 0.00 | 0.00 | 79 | 1015.3 |
| 20260502150801 | 62 | 35 | 0.0 | 0.0 | 0.00 | 0.00 | 0.00 | 79 | 1015.3 |
| 20260502150713 | 62 | 331 | 0.0 | 0.0 | 0.00 | 0.00 | 0.00 | 79 | 1015.3 |
| 20260502150614 | 62 | 336 | 0.0 | 0.0 | 0.00 | 0.00 | 0.00 | 79 | 1015.3 |
| 20260502150509 | 62 | 312 | 1.0 | 0.0 | 0.00 | 0.00 | 0.00 | 79 | 1015.3 |
| 20260502150430 | 62 | 277 | 1.0 | 0.0 | 0.00 | 0.00 | 0.00 | 79 | 1015.3 |
| 20260502150302 | 62 | 22 | 1.0 | 0.0 | 0.00 | 0.00 | 0.00 | 79 | 1015.3 |
| 20260502150213 | 62 | 297 | 1.0 | 0.0 | 0.00 | 0.00 | 0.00 | 79 | 1015.3 |
| 20260502150117 | 62 | 290 | 1.0 | 0.0 | 0.00 | 0.00 | 0.00 | 79 | 1015.0 |
| 20260502140108 | 62 | 345 | 1.0 | 0.0 | 0.00 | 0.00 | 0.00 | 81 | 1014.4 |
| 20260502130707 | 62 | 336 | 0.0 | 0.0 | 0.00 | 0.00 | 0.00 | 85 | 1013.8 |
| 20260502130628 | 62 | 338 | 0.0 | 0.0 | 0.00 | 0.00 | 0.00 | 85 | 1013.8 |
| 20260502130500 | 62 | 338 | 0.0 | 0.0 | 0.00 | 0.00 | 0.00 | 85 | 1013.8 |
| 20260502130425 | 62 | 338 | 0.0 | 0.0 | 0.00 | 0.00 | 0.00 | 85 | 1013.8 |
| 20260502130343 | 62 | 351 | 0.0 | 0.0 | 0.00 | 0.00 | 0.00 | 85 | 1013.8 |
| 20260502130223 | 62 | 351 | 0.0 | 0.0 | 0.00 | 0.00 | 0.00 | 85 | 1013.8 |
| 20260502123712 | 62 | 25 | 0.0 | 0.0 | 0.00 | 0.00 | 0.00 | 85 | 1013.2 |
| 20260502123634 | 62 | 40 | 0.0 | 0.0 | 0.00 | 0.00 | 0.00 | 85 | 1013.2 |
| 20260502123504 | 62 | 291 | 0.0 | 0.0 | 0.00 | 0.00 | 0.00 | 85 | 1013.2 |
| 20260502123427 | 62 | 295 | 0.0 | 0.0 | 0.00 | 0.00 | 0.00 | 85 | 1013.2 |
| 20260502123259 | 62 | 295 | 0.0 | 0.0 | 0.00 | 0.00 | 0.00 | 85 | 1013.2 |
| 20260502123216 | 62 | 295 | 0.0 | 0.0 | 0.00 | 0.00 | 0.00 | 85 | 1013.2 |
| 20260502123120 | 62 | 295 | 0.0 | 0.0 | 0.00 | 0.00 | 0.00 | 86 | 1012.9 |
| 20260502123018 | 62 | 346 | 0.0 | 0.0 | 0.00 | 0.00 | 0.00 | 85 | 1012.9 |
| 20260502122909 | 62 | 20 | 0.0 | 0.0 | 0.00 | 0.00 | 0.00 | 85 | 1012.9 |
| 20260502122833 | 62 | 10 | 0.0 | 0.0 | 0.00 | 0.00 | 0.00 | 85 | 1012.9 |
| 20260502122705 | 62 | 20 | 0.0 | 0.0 | 0.00 | 0.00 | 0.00 | 85 | 1012.9 |
| 20260502122627 | 62 | 20 | 0.0 | 0.0 | 0.00 | 0.00 | 0.00 | 85 | 1012.9 |
| 20260502122458 | 62 | 19 | 0.0 | 0.0 | 0.00 | 0.00 | 0.00 | 85 | 1012.9 |
| 20260502122426 | 62 | 19 | 0.0 | 0.0 | 0.00 | 0.00 | 0.00 | 85 | 1012.9 |
| 20260502122348 | 62 | 28 | 0.0 | 0.0 | 0.00 | 0.00 | 0.00 | 85 | 1012.9 |
| 20260502122204 | 62 | 24 | 0.0 | 0.0 | 0.00 | 0.00 | 0.00 | 85 | 1012.9 |
| 20260502122115 | 62 | 24 | 0.0 | 0.0 | 0.00 | 0.00 | 0.00 | 85 | 1012.9 |
| 20260502122022 | 62 | 24 | 0.0 | 0.0 | 0.00 | 0.00 | 0.00 | 85 | 1012.9 |
| 20260502121919 | 62 | 40 | 0.0 | 0.0 | 0.00 | 0.00 | 0.00 | 85 | 1012.9 |
| 20260502121812 | 62 | 30 | 0.0 | 0.0 | 0.00 | 0.00 | 0.00 | 86 | 1012.9 |
| 20260502121712 | 62 | 23 | 0.0 | 0.0 | 0.00 | 0.00 | 0.00 | 85 | 1012.9 |
| 20260502121605 | 62 | 20 | 0.0 | 0.0 | 0.00 | 0.00 | 0.00 | 85 | 1012.7 |
| 20260502121530 | 62 | 38 | 0.0 | 0.0 | 0.00 | 0.00 | 0.00 | 85 | 1012.7 |
| 20260502121402 | 62 | 348 | 0.0 | 0.0 | 0.00 | 0.00 | 0.00 | 86 | 1012.7 |
| 20260502121318 | 62 | 348 | 0.0 | 0.0 | 0.00 | 0.00 | 0.00 | 86 | 1012.7 |
| 20260502121219 | 62 | 9 | 0.0 | 0.0 | 0.00 | 0.00 | 0.00 | 85 | 1012.7 |
| 20260502121113 | 62 | 9 | 0.0 | 0.0 | 0.00 | 0.00 | 0.00 | 85 | 1012.7 |
| 20260502121009 | 62 | 29 | 0.0 | 0.0 | 0.00 | 0.00 | 0.00 | 85 | 1012.7 |
| 20260502120910 | 62 | 29 | 0.0 | 0.0 | 0.00 | 0.00 | 0.00 | 85 | 1012.7 |
| 20260502120806 | 62 | 29 | 0.0 | 0.0 | 0.00 | 0.00 | 0.00 | 86 | 1012.7 |
| 20260502120704 | 62 | 249 | 0.0 | 0.0 | 0.00 | 0.00 | 0.00 | 86 | 1012.7 |
| 20260502120625 | 62 | 250 | 0.0 | 0.0 | 0.00 | 0.00 | 0.00 | 86 | 1012.7 |
| 20260502120526 | 62 | 249 | 0.0 | 0.0 | 0.00 | 0.00 | 0.00 | 86 | 1012.7 |
| 20260502120419 | 62 | 250 | 0.0 | 0.0 | 0.00 | 0.00 | 0.00 | 86 | 1012.7 |
| 20260502120311 | 62 | 249 | 0.0 | 0.0 | 0.00 | 0.00 | 0.00 | 86 | 1012.7 |
| 20260502120214 | 62 | 250 | 0.0 | 0.0 | 0.00 | 0.00 | 0.00 | 86 | 1012.7 |
| 20260502120113 | 62 | 249 | 0.0 | 0.0 | 0.00 | 0.00 | 0.00 | 85 | 1012.4 |
| 20260502115908 | 62 | 249 | 0.0 | 0.0 | 0.00 | 0.00 | 0.00 | 85 | 1012.4 |
| 20260502115829 | 62 | 39 | 0.0 | 0.0 | 0.00 | 0.00 | 0.00 | 85 | 1012.4 |
| 20260502115729 | 62 | 39 | 0.0 | 0.0 | 0.00 | 0.00 | 0.00 | 85 | 1012.4 |
| 20260502115602 | 62 | 5 | 0.0 | 0.0 | 0.00 | 0.00 | 0.00 | 86 | 1012.4 |
| 20260502115512 | 62 | 5 | 0.0 | 0.0 | 0.00 | 0.00 | 0.00 | 86 | 1012.4 |
| 20260502115417 | 62 | 5 | 0.0 | 0.0 | 0.00 | 0.00 | 0.00 | 85 | 1012.4 |
| 20260502115314 | 62 | 12 | 0.0 | 0.0 | 0.00 | 0.00 | 0.00 | 85 | 1012.4 |
| 20260502115235 | 62 | 12 | 0.0 | 0.0 | 0.00 | 0.00 | 0.00 | 85 | 1012.4 |
| 20260502115106 | 62 | 16 | 0.0 | 0.0 | 0.00 | 0.00 | 0.00 | 85 | 1012.4 |
| 20260502115030 | 62 | 298 | 0.0 | 0.0 | 0.00 | 0.00 | 0.00 | 85 | 1012.4 |
| 20260502114902 | 62 | 298 | 0.0 | 0.0 | 0.00 | 0.00 | 0.00 | 85 | 1012.4 |
| 20260502114814 | 62 | 297 | 0.0 | 0.0 | 0.00 | 0.00 | 0.00 | 85 | 1012.4 |
| 20260502114712 | 62 | 297 | 0.0 | 0.0 | 0.00 | 0.00 | 0.00 | 85 | 1012.4 |
| 20260502114608 | 62 | 297 | 0.0 | 0.0 | 0.00 | 0.00 | 0.00 | 85 | 1012.0 |
| 20260502114504 | 62 | 297 | 0.0 | 0.0 | 0.00 | 0.00 | 0.00 | 85 | 1012.0 |
| 20260502114318 | 62 | 342 | 0.0 | 0.0 | 0.00 | 0.00 | 0.00 | 85 | 1012.0 |
| 20260502114218 | 62 | 342 | 0.0 | 0.0 | 0.00 | 0.00 | 0.00 | 85 | 1012.0 |
| 20260502114109 | 62 | 342 | 0.0 | 0.0 | 0.00 | 0.00 | 0.00 | 85 | 1012.0 |
| 20260502114033 | 62 | 342 | 0.0 | 0.0 | 0.00 | 0.00 | 0.00 | 85 | 1012.0 |
| 20260502113943 | 62 | 0.0 | 0.0 | 0.00 | 0.00 | 0.00 | 85 | 1012.0 | |
| 20260502113823 | 62 | 0.0 | 0.0 | 0.00 | 0.00 | 0.00 | 85 | 1012.0 | |
| 20260502113721 | 62 | 0.0 | 0.0 | 0.00 | 0.00 | 0.00 | 85 | 1012.0 | |
| 20260502113621 | 62 | 0.0 | 0.0 | 0.00 | 0.00 | 0.00 | 85 | 1012.0 | |
| 20260502113515 | 62 | 360 | 0.0 | 0.0 | 0.00 | 0.00 | 0.00 | 85 | 1012.0 |
| 20260502113415 | 62 | 360 | 0.0 | 0.0 | 0.00 | 0.00 | 0.00 | 85 | 1012.0 |
| 20260502113257 | 62 | 360 | 0.0 | 0.0 | 0.00 | 0.00 | 0.00 | 85 | 1012.0 |
| 20260502113203 | 62 | 360 | 0.0 | 0.0 | 0.00 | 0.00 | 0.00 | 85 | 1012.0 |
| 20260502113122 | 62 | 360 | 0.0 | 0.0 | 0.00 | 0.00 | 0.00 | 85 | 1011.8 |
| 20260502113011 | 62 | 360 | 0.0 | 0.0 | 0.00 | 0.00 | 0.00 | 85 | 1011.8 |
| 20260502112933 | 62 | 360 | 0.0 | 0.0 | 0.00 | 0.00 | 0.00 | 85 | 1011.8 |
| 20260502112814 | 62 | 360 | 0.0 | 0.0 | 0.00 | 0.00 | 0.00 | 85 | 1011.8 |
| 20260502112726 | 62 | 15 | 0.0 | 0.0 | 0.00 | 0.00 | 0.00 | 85 | 1011.8 |
| 20260502112626 | 62 | 349 | 0.0 | 0.0 | 0.00 | 0.00 | 0.00 | 85 | 1011.8 |
| 20260502112525 | 62 | 349 | 0.0 | 0.0 | 0.00 | 0.00 | 0.00 | 85 | 1011.8 |
| 20260502112417 | 62 | 28 | 0.0 | 0.0 | 0.00 | 0.00 | 0.00 | 85 | 1011.8 |
| 20260502112313 | 62 | 28 | 0.0 | 0.0 | 0.00 | 0.00 | 0.00 | 85 | 1011.8 |
| 20260502112219 | 62 | 350 | 0.0 | 0.0 | 0.00 | 0.00 | 0.00 | 85 | 1011.8 |
| 20260502112114 | 62 | 350 | 0.0 | 0.0 | 0.00 | 0.00 | 0.00 | 85 | 1011.8 |
| 20260502112017 | 62 | 350 | 0.0 | 0.0 | 0.00 | 0.00 | 0.00 | 85 | 1011.8 |
| 20260502111910 | 62 | 350 | 0.0 | 0.0 | 0.00 | 0.00 | 0.00 | 85 | 1011.8 |
| 20260502111804 | 62 | 360 | 0.0 | 0.0 | 0.00 | 0.00 | 0.00 | 85 | 1011.8 |
| 20260502111706 | 62 | 360 | 0.0 | 0.0 | 0.00 | 0.00 | 0.00 | 85 | 1011.8 |
| 20260502111628 | 62 | 360 | 0.0 | 0.0 | 0.00 | 0.00 | 0.00 | 85 | 1011.8 |
| 20260502111504 | 62 | 9 | 0.0 | 0.0 | 0.00 | 0.00 | 0.00 | 86 | 1011.5 |
| 20260502111417 | 62 | 50 | 0.0 | 0.0 | 0.00 | 0.00 | 0.00 | 85 | 1011.5 |
| 20260502111318 | 62 | 328 | 0.0 | 0.0 | 0.00 | 0.00 | 0.00 | 85 | 1011.5 |
| 20260502111211 | 62 | 21 | 0.0 | 0.0 | 0.00 | 0.00 | 0.00 | 85 | 1011.5 |
| 20260502111104 | 62 | 21 | 0.0 | 0.0 | 0.00 | 0.00 | 0.00 | 85 | 1011.5 |
| 20260502111006 | 62 | 21 | 0.0 | 0.0 | 0.00 | 0.00 | 0.00 | 85 | 1011.5 |
| 20260502110922 | 62 | 355 | 0.0 | 0.0 | 0.00 | 0.00 | 0.00 | 85 | 1011.5 |
| 20260502110842 | 62 | 17 | 0.0 | 0.0 | 0.00 | 0.00 | 0.00 | 86 | 1011.5 |
| 20260502110745 | 62 | 17 | 0.0 | 0.0 | 0.00 | 0.00 | 0.00 | 86 | 1011.5 |
| 20260502110623 | 62 | 35 | 0.0 | 0.0 | 0.00 | 0.00 | 0.00 | 86 | 1011.5 |
| 20260502110547 | 62 | 35 | 0.0 | 0.0 | 0.00 | 0.00 | 0.00 | 86 | 1011.5 |
| 20260502110402 | 62 | 27 | 0.0 | 0.0 | 0.00 | 0.00 | 0.00 | 85 | 1011.5 |
| 20260502110314 | 62 | 17 | 0.0 | 0.0 | 0.00 | 0.00 | 0.00 | 85 | 1011.5 |
| 20260502110218 | 62 | 53 | 0.0 | 0.0 | 0.00 | 0.00 | 0.00 | 85 | 1011.5 |
| 20260502110109 | 62 | 53 | 0.0 | 0.0 | 0.00 | 0.00 | 0.00 | 85 | 1011.3 |
| 20260502110002 | 62 | 42 | 0.0 | 0.0 | 0.00 | 0.00 | 0.00 | 85 | 1011.3 |
| 20260502105909 | 62 | 40 | 0.0 | 0.0 | 0.00 | 0.00 | 0.00 | 85 | 1011.3 |
| 20260502105819 | 62 | 38 | 0.0 | 0.0 | 0.00 | 0.00 | 0.00 | 85 | 1011.3 |
| 20260502105724 | 62 | 38 | 0.0 | 0.0 | 0.00 | 0.00 | 0.00 | 85 | 1011.3 |
| 20260502105558 | 62 | 38 | 0.0 | 0.0 | 0.00 | 0.00 | 0.00 | 85 | 1011.3 |
| 20260502105514 | 62 | 24 | 0.0 | 0.0 | 0.00 | 0.00 | 0.00 | 85 | 1011.3 |
| 20260502105416 | 62 | 10 | 1.0 | 0.0 | 0.00 | 0.00 | 0.00 | 85 | 1011.3 |
| 20260502105330 | 62 | 22 | 1.0 | 0.0 | 0.00 | 0.00 | 0.00 | 85 | 1011.3 |
| 20260502105217 | 62 | 18 | 0.0 | 0.0 | 0.00 | 0.00 | 0.00 | 85 | 1011.3 |
| 20260502105113 | 62 | 27 | 0.0 | 0.0 | 0.00 | 0.00 | 0.00 | 85 | 1011.3 |
| 20260502105004 | 62 | 350 | 0.0 | 0.0 | 0.00 | 0.00 | 0.00 | 85 | 1011.3 |
| 20260502104908 | 62 | 14 | 0.0 | 0.0 | 0.00 | 0.00 | 0.00 | 85 | 1011.3 |
| 20260502104806 | 62 | 43 | 0.0 | 0.0 | 0.00 | 0.00 | 0.00 | 85 | 1011.3 |
| 20260502104727 | 62 | 36 | 0.0 | 0.0 | 0.00 | 0.00 | 0.00 | 85 | 1011.3 |
| 20260502104617 | 62 | 26 | 0.0 | 0.0 | 0.00 | 0.00 | 0.00 | 85 | 1011.3 |
| 20260502104526 | 62 | 40 | 0.0 | 0.0 | 0.00 | 0.00 | 0.00 | 85 | 1011.3 |
| 20260502104416 | 62 | 20 | 0.0 | 0.0 | 0.00 | 0.00 | 0.00 | 85 | 1011.3 |
| 20260502104307 | 62 | 15 | 0.0 | 0.0 | 0.00 | 0.00 | 0.00 | 85 | 1011.3 |
| 20260502104229 | 62 | 15 | 0.0 | 0.0 | 0.00 | 0.00 | 0.00 | 85 | 1011.3 |
| 20260502104122 | 62 | 316 | 0.0 | 0.0 | 0.00 | 0.00 | 0.00 | 85 | 1011.3 |
| 20260502104025 | 62 | 297 | 0.0 | 0.0 | 0.00 | 0.00 | 0.00 | 85 | 1011.3 |
| 20260502103916 | 62 | 34 | 0.0 | 0.0 | 0.00 | 0.00 | 0.00 | 85 | 1011.3 |
| 20260502103818 | 62 | 11 | 0.0 | 0.0 | 0.00 | 0.00 | 0.00 | 85 | 1011.3 |
| 20260502103713 | 62 | 28 | 0.0 | 0.0 | 0.00 | 0.00 | 0.00 | 85 | 1011.3 |
| 20260502103636 | 62 | 31 | 0.0 | 0.0 | 0.00 | 0.00 | 0.00 | 85 | 1011.3 |
| 20260502103509 | 62 | 24 | 0.0 | 0.0 | 0.00 | 0.00 | 0.00 | 85 | 1011.3 |
| 20260502103403 | 62 | 35 | 0.0 | 0.0 | 0.00 | 0.00 | 0.00 | 85 | 1011.3 |
| 20260502103307 | 62 | 43 | 0.0 | 0.0 | 0.00 | 0.00 | 0.00 | 85 | 1011.3 |
| 20260502103217 | 62 | 57 | 0.0 | 0.0 | 0.00 | 0.00 | 0.00 | 85 | 1011.3 |
| 20260502103100 | 62 | 346 | 0.0 | 0.0 | 0.00 | 0.00 | 0.00 | 85 | 1011.2 |
| 20260502103012 | 62 | 346 | 0.0 | 0.0 | 0.00 | 0.00 | 0.00 | 85 | 1011.2 |
| 20260502102917 | 62 | 345 | 0.0 | 0.0 | 0.00 | 0.00 | 0.00 | 85 | 1011.2 |
| 20260502102828 | 62 | 304 | 0.0 | 0.0 | 0.00 | 0.00 | 0.00 | 85 | 1011.2 |
| 20260502102714 | 62 | 304 | 0.0 | 0.0 | 0.00 | 0.00 | 0.00 | 85 | 1011.2 |
| 20260502102606 | 62 | 304 | 0.0 | 0.0 | 0.00 | 0.00 | 0.00 | 85 | 1011.2 |
| 20260502102528 | 62 | 292 | 0.0 | 0.0 | 0.00 | 0.00 | 0.00 | 85 | 1011.2 |
| 20260502102429 | 62 | 292 | 0.0 | 0.0 | 0.00 | 0.00 | 0.00 | 85 | 1011.2 |
| 20260502102301 | 62 | 19 | 0.0 | 0.0 | 0.00 | 0.00 | 0.00 | 86 | 1011.2 |
| 20260502102213 | 62 | 19 | 0.0 | 0.0 | 0.00 | 0.00 | 0.00 | 86 | 1011.2 |
| 20260502102134 | 62 | 26 | 0.0 | 0.0 | 0.00 | 0.00 | 0.00 | 86 | 1011.2 |
| 20260502102009 | 62 | 26 | 0.0 | 0.0 | 0.00 | 0.00 | 0.00 | 86 | 1011.2 |
| 20260502101909 | 62 | 26 | 0.0 | 0.0 | 0.00 | 0.00 | 0.00 | 86 | 1011.2 |
| 20260502101617 | 62 | 27 | 0.0 | 0.0 | 0.00 | 0.00 | 0.00 | 85 | 1010.8 |
| 20260502101512 | 62 | 27 | 0.0 | 0.0 | 0.00 | 0.00 | 0.00 | 85 | 1010.8 |
| 20260502101440 | 62 | 30 | 0.0 | 0.0 | 0.00 | 0.00 | 0.00 | 85 | 1010.8 |
| 20260502101328 | 62 | 30 | 0.0 | 0.0 | 0.00 | 0.00 | 0.00 | 85 | 1010.8 |
| 20260502101219 | 62 | 30 | 0.0 | 0.0 | 0.00 | 0.00 | 0.00 | 85 | 1010.8 |
| 20260502101140 | 62 | 30 | 0.0 | 0.0 | 0.00 | 0.00 | 0.00 | 85 | 1010.8 |
| 20260502101012 | 62 | 37 | 0.0 | 0.0 | 0.00 | 0.00 | 0.00 | 85 | 1010.8 |
| 20260502100933 | 62 | 116 | 0.0 | 0.0 | 0.00 | 0.00 | 0.00 | 85 | 1010.8 |
| 20260502100808 | 62 | 30 | 0.0 | 0.0 | 0.00 | 0.00 | 0.00 | 85 | 1010.8 |
| 20260502100713 | 62 | 29 | 0.0 | 0.0 | 0.00 | 0.00 | 0.00 | 85 | 1010.8 |
| 20260502100606 | 62 | 18 | 0.0 | 0.0 | 0.00 | 0.00 | 0.00 | 85 | 1010.8 |
| 20260502100506 | 62 | 38 | 0.0 | 0.0 | 0.00 | 0.00 | 0.00 | 85 | 1010.8 |
| 20260502100402 | 62 | 9 | 0.0 | 0.0 | 0.00 | 0.00 | 0.00 | 85 | 1010.8 |
| 20260502100326 | 62 | 355 | 0.0 | 0.0 | 0.00 | 0.00 | 0.00 | 85 | 1010.8 |
| 20260502100218 | 62 | 31 | 0.0 | 0.0 | 0.00 | 0.00 | 0.00 | 85 | 1010.8 |
| 20260502100110 | 62 | 37 | 0.0 | 0.0 | 0.00 | 0.00 | 0.00 | 85 | 1010.8 |
| 20260502091512 | 63 | 307 | 0.0 | 0.0 | 0.00 | 0.00 | 0.00 | 85 | 1010.7 |
| 20260502091404 | 63 | 308 | 0.0 | 0.0 | 0.00 | 0.00 | 0.00 | 85 | 1010.7 |
| 20260502091308 | 63 | 308 | 0.0 | 0.0 | 0.00 | 0.00 | 0.00 | 85 | 1010.7 |
| 20260502091201 | 63 | 344 | 0.0 | 0.0 | 0.00 | 0.00 | 0.00 | 85 | 1010.7 |
| 20260502091110 | 63 | 347 | 0.0 | 0.0 | 0.00 | 0.00 | 0.00 | 85 | 1010.7 |
| 20260502091024 | 63 | 40 | 0.0 | 0.0 | 0.00 | 0.00 | 0.00 | 85 | 1010.7 |
| 20260502090924 | 63 | 333 | 0.0 | 0.0 | 0.00 | 0.00 | 0.00 | 85 | 1010.7 |
| 20260502090823 | 63 | 335 | 0.0 | 0.0 | 0.00 | 0.00 | 0.00 | 85 | 1010.7 |
| 20260502090737 | 63 | 39 | 0.0 | 0.0 | 0.00 | 0.00 | 0.00 | 85 | 1010.7 |
| 20260502090617 | 63 | 59 | 0.0 | 0.0 | 0.00 | 0.00 | 0.00 | 85 | 1010.7 |
| 20260502090514 | 63 | 34 | 0.0 | 0.0 | 0.00 | 0.00 | 0.00 | 85 | 1010.7 |
| 20260502090408 | 63 | 40 | 0.0 | 0.0 | 0.00 | 0.00 | 0.00 | 85 | 1010.7 |
| 20260502090309 | 63 | 30 | 0.0 | 0.0 | 0.00 | 0.00 | 0.00 | 85 | 1010.7 |
| 20260502090205 | 63 | 346 | 0.0 | 0.0 | 0.00 | 0.00 | 0.00 | 85 | 1010.7 |
| 20260502071512 | 64 | 346 | 1.0 | 0.0 | 0.00 | 0.00 | 0.00 | 85 | 1009.7 |
| 20260502071415 | 64 | 40 | 1.0 | 0.0 | 0.00 | 0.00 | 0.00 | 85 | 1009.7 |
| 20260502071312 | 64 | 346 | 1.0 | 0.0 | 0.00 | 0.00 | 0.00 | 85 | 1009.7 |
| 20260502071213 | 64 | 23 | 1.0 | 0.0 | 0.00 | 0.00 | 0.00 | 85 | 1009.7 |
| 20260502071104 | 64 | 16 | 1.0 | 0.0 | 0.00 | 0.00 | 0.00 | 85 | 1009.7 |
| 20260502071028 | 64 | 350 | 1.0 | 0.0 | 0.00 | 0.00 | 0.00 | 85 | 1009.7 |
| 20260502070900 | 64 | 273 | 0.0 | 0.0 | 0.00 | 0.00 | 0.00 | 85 | 1009.7 |
| 20260502070812 | 64 | 329 | 0.0 | 0.0 | 0.00 | 0.00 | 0.00 | 85 | 1009.7 |
| 20260502070713 | 64 | 42 | 0.0 | 0.0 | 0.00 | 0.00 | 0.00 | 85 | 1009.7 |
| 20260502070608 | 64 | 15 | 1.0 | 0.0 | 0.00 | 0.00 | 0.00 | 85 | 1009.7 |
| 20260502070500 | 64 | 9 | 1.0 | 0.0 | 0.00 | 0.00 | 0.00 | 85 | 1009.7 |
| 20260502070425 | 64 | 33 | 1.0 | 0.0 | 0.00 | 0.00 | 0.00 | 85 | 1009.7 |
| 20260502070347 | 64 | 30 | 1.0 | 0.0 | 0.00 | 0.00 | 0.00 | 86 | 1009.7 |
| 20260502070157 | 64 | 12 | 2.0 | 0.0 | 0.00 | 0.00 | 0.00 | 85 | 1009.7 |
| 20260502070111 | 64 | 23 | 2.0 | 0.0 | 0.00 | 0.00 | 0.00 | 85 | 1009.5 |
| 20260502070019 | 64 | 23 | 2.0 | 0.0 | 0.00 | 0.00 | 0.00 | 85 | 1009.5 |
| 20260502065918 | 64 | 20 | 2.0 | 0.0 | 0.00 | 0.00 | 0.00 | 85 | 1009.5 |
| 20260502065843 | 64 | 35 | 2.0 | 0.0 | 0.00 | 0.00 | 0.00 | 85 | 1009.5 |
| 20260502065717 | 64 | 54 | 2.0 | 0.0 | 0.00 | 0.00 | 0.00 | 85 | 1009.5 |
| 20260502065609 | 64 | 30 | 1.0 | 0.0 | 0.00 | 0.00 | 0.00 | 85 | 1009.5 |
| 20260502065509 | 64 | 265 | 1.0 | 0.0 | 0.00 | 0.00 | 0.00 | 85 | 1009.5 |
| 20260502065402 | 64 | 34 | 1.0 | 0.0 | 0.00 | 0.00 | 0.00 | 85 | 1009.5 |
| 20260502065326 | 64 | 329 | 1.0 | 0.0 | 0.00 | 0.00 | 0.00 | 85 | 1009.5 |
| 20260502065206 | 64 | 22 | 2.0 | 0.0 | 0.00 | 0.00 | 0.00 | 85 | 1009.5 |
| 20260502065119 | 64 | 30 | 2.0 | 0.0 | 0.00 | 0.00 | 0.00 | 85 | 1009.5 |
| 20260502065043 | 65 | 25 | 2.0 | 0.0 | 0.00 | 0.00 | 0.00 | 85 | 1009.5 |
| 20260502064945 | 65 | 48 | 1.0 | 0.0 | 0.00 | 0.00 | 0.00 | 85 | 1009.5 |
| 20260502064816 | 65 | 38 | 2.0 | 0.0 | 0.00 | 0.00 | 0.00 | 85 | 1009.5 |
| 20260502064719 | 64 | 12 | 2.0 | 0.0 | 0.00 | 0.00 | 0.00 | 85 | 1009.5 |
| 20260502064609 | 65 | 33 | 2.0 | 0.0 | 0.00 | 0.00 | 0.00 | 85 | 1009.7 |
| 20260502064510 | 65 | 29 | 3.0 | 0.0 | 0.00 | 0.00 | 0.00 | 85 | 1009.7 |
| 20260502064401 | 64 | 12 | 4.0 | 0.0 | 0.00 | 0.00 | 0.00 | 85 | 1009.7 |
| 20260502064303 | 64 | 20 | 3.0 | 0.0 | 0.00 | 0.00 | 0.00 | 85 | 1009.7 |
| 20260502064205 | 65 | 355 | 3.0 | 0.0 | 0.00 | 0.00 | 0.00 | 85 | 1009.7 |
| 20260502064100 | 65 | 26 | 3.0 | 0.0 | 0.00 | 0.00 | 0.00 | 85 | 1009.7 |
| 20260502064023 | 65 | 342 | 3.0 | 0.0 | 0.00 | 0.00 | 0.00 | 85 | 1009.7 |
| 20260502063918 | 65 | 33 | 3.0 | 0.0 | 0.00 | 0.00 | 0.00 | 85 | 1009.7 |
| 20260502063824 | 65 | 22 | 3.0 | 0.0 | 0.00 | 0.00 | 0.00 | 85 | 1009.7 |
| 20260502063700 | 65 | 30 | 2.0 | 0.0 | 0.00 | 0.00 | 0.00 | 85 | 1009.7 |
| 20260502063613 | 65 | 40 | 2.0 | 0.0 | 0.00 | 0.00 | 0.00 | 85 | 1009.7 |
| 20260502063520 | 65 | 348 | 2.0 | 0.0 | 0.00 | 0.00 | 0.00 | 85 | 1009.7 |
| 20260502063415 | 65 | 46 | 1.0 | 0.0 | 0.00 | 0.00 | 0.00 | 85 | 1009.7 |
| 20260502063308 | 65 | 351 | 1.0 | 0.0 | 0.00 | 0.00 | 0.00 | 85 | 1009.7 |
| 20260502063228 | 65 | 56 | 1.0 | 0.0 | 0.00 | 0.00 | 0.00 | 85 | 1009.7 |
| 20260502063113 | 65 | 28 | 1.0 | 0.0 | 0.00 | 0.00 | 0.00 | 85 | 1009.7 |
| 20260502063005 | 65 | 30 | 2.0 | 0.0 | 0.00 | 0.00 | 0.00 | 85 | 1009.7 |
| 20260502062926 | 65 | 14 | 2.0 | 0.0 | 0.00 | 0.00 | 0.00 | 85 | 1009.7 |
| 20260502062825 | 65 | 350 | 2.0 | 0.0 | 0.00 | 0.00 | 0.00 | 85 | 1009.7 |
| 20260502062726 | 65 | 41 | 2.0 | 0.0 | 0.00 | 0.00 | 0.00 | 85 | 1009.7 |
| 20260502062621 | 65 | 34 | 2.0 | 0.0 | 0.00 | 0.00 | 0.00 | 85 | 1009.7 |
| 20260502062547 | 65 | 39 | 3.0 | 0.0 | 0.00 | 0.00 | 0.00 | 85 | 1009.7 |
| 20260502062402 | 65 | 57 | 3.0 | 0.0 | 0.00 | 0.00 | 0.00 | 85 | 1009.7 |
| 20260502062317 | 65 | 36 | 3.0 | 0.0 | 0.00 | 0.00 | 0.00 | 85 | 1009.7 |
| 20260502062219 | 65 | 14 | 3.0 | 0.0 | 0.00 | 0.00 | 0.00 | 85 | 1009.7 |
| 20260502062110 | 65 | 285 | 2.0 | 0.0 | 0.00 | 0.00 | 0.00 | 85 | 1009.7 |
| 20260502062008 | 65 | 38 | 2.0 | 0.0 | 0.00 | 0.00 | 0.00 | 85 | 1009.7 |
| 20260502061908 | 65 | 68 | 2.0 | 0.0 | 0.00 | 0.00 | 0.00 | 85 | 1009.7 |
| 20260502061832 | 65 | 57 | 2.0 | 0.0 | 0.00 | 0.00 | 0.00 | 85 | 1009.7 |
| 20260502061741 | 65 | 49 | 2.0 | 0.0 | 0.00 | 0.00 | 0.00 | 85 | 1009.7 |
| 20260502061619 | 65 | 25 | 3.0 | 0.0 | 0.00 | 0.00 | 0.00 | 85 | 1009.5 |
| 20260502061533 | 65 | 288 | 2.0 | 0.0 | 0.00 | 0.00 | 0.00 | 85 | 1009.5 |
| 20260502061419 | 65 | 16 | 2.0 | 0.0 | 0.00 | 0.00 | 0.00 | 85 | 1009.5 |
| 20260502061311 | 65 | 236 | 3.0 | 0.0 | 0.00 | 0.00 | 0.00 | 85 | 1009.5 |
| 20260502061215 | 65 | 342 | 3.0 | 0.0 | 0.00 | 0.00 | 0.00 | 85 | 1009.5 |
| 20260502061106 | 65 | 59 | 4.0 | 0.0 | 0.00 | 0.00 | 0.00 | 85 | 1009.5 |
| 20260502061026 | 65 | 28 | 4.0 | 0.0 | 0.00 | 0.00 | 0.00 | 85 | 1009.5 |
| 20260502060917 | 65 | 355 | 5.0 | 0.0 | 0.00 | 0.00 | 0.00 | 85 | 1009.5 |
| 20260502060811 | 65 | 17 | 4.0 | 0.0 | 0.00 | 0.00 | 0.00 | 85 | 1009.5 |
| 20260502060713 | 65 | 46 | 5.0 | 0.0 | 0.00 | 0.00 | 0.00 | 85 | 1009.5 |
| 20260502060605 | 65 | 34 | 5.0 | 0.0 | 0.00 | 0.00 | 0.00 | 85 | 1009.5 |
| 20260502060510 | 65 | 61 | 5.0 | 0.0 | 0.00 | 0.00 | 0.00 | 85 | 1009.5 |
| 20260502060403 | 65 | 39 | 5.0 | 0.0 | 0.00 | 0.00 | 0.00 | 85 | 1009.5 |
| 20260502060307 | 65 | 288 | 5.0 | 0.0 | 0.00 | 0.00 | 0.00 | 85 | 1009.5 |
| 20260502060218 | 65 | 11 | 4.0 | 0.0 | 0.00 | 0.00 | 0.00 | 85 | 1009.5 |
| 20260502060117 | 65 | 38 | 4.0 | 0.0 | 0.00 | 0.00 | 0.00 | 85 | 1009.4 |
| 20260502060009 | 65 | 34 | 3.0 | 0.0 | 0.00 | 0.00 | 0.00 | 85 | 1009.4 |
| 20260502055909 | 65 | 37 | 3.0 | 0.0 | 0.00 | 0.00 | 0.00 | 85 | 1009.4 |
| 20260502055813 | 65 | 37 | 3.0 | 0.0 | 0.00 | 0.00 | 0.00 | 85 | 1009.4 |
| 20260502055706 | 65 | 13 | 3.0 | 0.0 | 0.00 | 0.00 | 0.00 | 85 | 1009.4 |
| 20260502055627 | 65 | 340 | 3.0 | 0.0 | 0.00 | 0.00 | 0.00 | 85 | 1009.4 |
| 20260502055520 | 65 | 344 | 3.0 | 0.0 | 0.00 | 0.00 | 0.00 | 85 | 1009.4 |
| 20260502055421 | 65 | 49 | 2.0 | 0.0 | 0.00 | 0.00 | 0.00 | 85 | 1009.4 |
| 20260502055335 | 65 | 64 | 2.0 | 0.0 | 0.00 | 0.00 | 0.00 | 85 | 1009.4 |
| 20260502055220 | 65 | 12 | 2.0 | 0.0 | 0.00 | 0.00 | 0.00 | 85 | 1009.4 |
| 20260502055116 | 65 | 329 | 2.0 | 0.0 | 0.00 | 0.00 | 0.00 | 85 | 1009.4 |
| 20260502055038 | 65 | 38 | 1.0 | 0.0 | 0.00 | 0.00 | 0.00 | 85 | 1009.4 |
| 20260502054908 | 66 | 31 | 1.0 | 0.0 | 0.00 | 0.00 | 0.00 | 85 | 1009.4 |
| 20260502054812 | 66 | 346 | 1.0 | 0.0 | 0.00 | 0.00 | 0.00 | 85 | 1009.4 |
| 20260502054707 | 66 | 15 | 1.0 | 0.0 | 0.00 | 0.00 | 0.00 | 85 | 1009.4 |
| 20260502054607 | 66 | 34 | 1.0 | 0.0 | 0.00 | 0.00 | 0.00 | 85 | 1009.3 |
| 20260502054521 | 66 | 340 | 1.0 | 0.0 | 0.00 | 0.00 | 0.00 | 85 | 1009.3 |
| 20260502054421 | 66 | 51 | 1.0 | 0.0 | 0.00 | 0.00 | 0.00 | 85 | 1009.3 |
| 20260502054336 | 66 | 331 | 1.0 | 0.0 | 0.00 | 0.00 | 0.00 | 85 | 1009.3 |
| 20260502054215 | 66 | 317 | 1.0 | 0.0 | 0.00 | 0.00 | 0.00 | 85 | 1009.3 |
| 20260502054105 | 66 | 18 | 1.0 | 0.0 | 0.00 | 0.00 | 0.00 | 85 | 1009.3 |
| 20260502054012 | 66 | 26 | 1.0 | 0.0 | 0.00 | 0.00 | 0.00 | 85 | 1009.3 |
| 20260502053925 | 66 | 40 | 1.0 | 0.0 | 0.00 | 0.00 | 0.00 | 85 | 1009.3 |
| 20260502053805 | 66 | 40 | 1.0 | 0.0 | 0.00 | 0.00 | 0.00 | 85 | 1009.3 |
| 20260502053716 | 66 | 15 | 1.0 | 0.0 | 0.00 | 0.00 | 0.00 | 85 | 1009.3 |
| 20260502053616 | 66 | 351 | 1.0 | 0.0 | 0.00 | 0.00 | 0.00 | 85 | 1009.3 |
| 20260502053505 | 66 | 45 | 1.0 | 0.0 | 0.00 | 0.00 | 0.00 | 85 | 1009.3 |
| 20260502053425 | 66 | 317 | 1.0 | 0.0 | 0.00 | 0.00 | 0.00 | 85 | 1009.3 |
| 20260502053317 | 66 | 22 | 2.0 | 0.0 | 0.00 | 0.00 | 0.00 | 85 | 1009.3 |
| 20260502053213 | 66 | 350 | 2.0 | 0.0 | 0.00 | 0.00 | 0.00 | 85 | 1009.3 |
| 20260502053112 | 66 | 360 | 1.0 | 0.0 | 0.00 | 0.00 | 0.00 | 85 | 1009.2 |
| 20260502053032 | 66 | 5 | 1.0 | 0.0 | 0.00 | 0.00 | 0.00 | 86 | 1009.2 |
| 20260502052903 | 66 | 53 | 2.0 | 0.0 | 0.00 | 0.00 | 0.00 | 85 | 1009.2 |
| 20260502052817 | 66 | 360 | 2.0 | 0.0 | 0.00 | 0.00 | 0.00 | 85 | 1009.2 |
| 20260502052717 | 66 | 360 | 3.0 | 0.0 | 0.00 | 0.00 | 0.00 | 85 | 1009.2 |
| 20260502052609 | 66 | 346 | 3.0 | 0.0 | 0.00 | 0.00 | 0.00 | 85 | 1009.2 |
| 20260502052513 | 66 | 69 | 4.0 | 0.0 | 0.00 | 0.00 | 0.00 | 85 | 1009.2 |
| 20260502052407 | 66 | 17 | 4.0 | 0.0 | 0.00 | 0.00 | 0.00 | 85 | 1009.2 |
| 20260502052306 | 66 | 46 | 4.0 | 0.0 | 0.00 | 0.00 | 0.00 | 85 | 1009.2 |
| 20260502052216 | 66 | 82 | 4.0 | 0.0 | 0.00 | 0.00 | 0.00 | 85 | 1009.2 |
| 20260502052120 | 66 | 348 | 4.0 | 0.0 | 0.00 | 0.00 | 0.00 | 85 | 1009.2 |
| 20260502052011 | 66 | 12 | 3.0 | 0.0 | 0.00 | 0.00 | 0.00 | 85 | 1009.2 |
| 20260502051931 | 66 | 315 | 3.0 | 0.0 | 0.00 | 0.00 | 0.00 | 85 | 1009.2 |
| 20260502051805 | 66 | 346 | 3.0 | 0.0 | 0.00 | 0.00 | 0.00 | 85 | 1009.2 |
| 20260502051726 | 66 | 27 | 3.0 | 0.0 | 0.00 | 0.00 | 0.06 | 85 | 1009.2 |
| 20260502051618 | 66 | 21 | 3.0 | 0.0 | 0.00 | 0.00 | 0.06 | 85 | 1009.2 |
| 20260502051523 | 66 | 69 | 3.0 | 0.0 | 0.00 | 0.00 | 0.06 | 84 | 1009.2 |
| 20260502051412 | 66 | 40 | 3.0 | 0.0 | 0.00 | 0.00 | 0.06 | 85 | 1009.2 |
| 20260502051337 | 66 | 40 | 3.0 | 0.0 | 0.00 | 0.00 | 0.06 | 84 | 1009.2 |
| 20260502051243 | 66 | 51 | 3.0 | 0.0 | 0.00 | 0.00 | 0.06 | 85 | 1009.2 |
| 20260502051111 | 66 | 46 | 3.0 | 0.0 | 0.00 | 0.00 | 0.06 | 85 | 1009.2 |
| 20260502051013 | 66 | 54 | 4.0 | 0.0 | 0.00 | 0.00 | 0.06 | 85 | 1009.2 |
| 20260502050905 | 66 | 11 | 4.0 | 0.0 | 0.00 | 0.00 | 0.06 | 85 | 1009.2 |
| 20260502050808 | 66 | 344 | 4.0 | 0.0 | 0.00 | 0.00 | 0.06 | 84 | 1009.2 |
| 20260502050718 | 66 | 16 | 4.0 | 0.0 | 0.00 | 0.00 | 0.06 | 84 | 1009.2 |
| 20260502050622 | 66 | 40 | 4.0 | 0.0 | 0.00 | 0.00 | 0.06 | 84 | 1009.2 |
| 20260502050512 | 67 | 15 | 3.0 | 0.0 | 0.00 | 0.00 | 0.06 | 84 | 1009.2 |
| 20260502050419 | 67 | 34 | 2.0 | 0.0 | 0.00 | 0.00 | 0.06 | 84 | 1009.2 |
| 20260502050331 | 67 | 30 | 2.0 | 0.0 | 0.00 | 0.00 | 0.06 | 85 | 1009.2 |
| 20260502050210 | 67 | 42 | 1.0 | 0.0 | 0.00 | 0.00 | 0.06 | 85 | 1009.2 |
| 20260502050104 | 67 | 34 | 1.0 | 0.0 | 0.00 | 0.00 | 0.06 | 84 | 1008.9 |
| 20260502050004 | 67 | 321 | 1.0 | 0.0 | 0.00 | 0.00 | 0.06 | 85 | 1008.9 |
| 20260502045914 | 67 | 348 | 1.0 | 0.0 | 0.00 | 0.00 | 0.06 | 85 | 1008.9 |
| 20260502045813 | 67 | 15 | 1.0 | 0.0 | 0.00 | 0.00 | 0.06 | 85 | 1008.9 |
| 20260502045710 | 67 | 22 | 1.0 | 0.0 | 0.00 | 0.00 | 0.06 | 85 | 1008.9 |
| 20260502045611 | 67 | 338 | 1.0 | 0.0 | 0.00 | 0.00 | 0.06 | 86 | 1008.9 |
| 20260502045502 | 67 | 34 | 1.0 | 0.0 | 0.00 | 0.00 | 0.06 | 86 | 1008.9 |
| 20260502045429 | 67 | 11 | 1.0 | 0.0 | 0.00 | 0.00 | 0.06 | 86 | 1008.9 |
| 20260502045320 | 67 | 9 | 1.0 | 0.0 | 0.00 | 0.00 | 0.06 | 86 | 1008.9 |
| 20260502045220 | 67 | 17 | 0.0 | 0.0 | 0.00 | 0.00 | 0.06 | 86 | 1008.9 |
| 20260502045132 | 67 | 41 | 0.0 | 0.0 | 0.00 | 0.00 | 0.06 | 86 | 1008.9 |
| 20260502045011 | 67 | 27 | 0.0 | 0.0 | 0.00 | 0.00 | 0.06 | 86 | 1008.9 |
| 20260502044934 | 67 | 19 | 0.0 | 0.0 | 0.00 | 0.00 | 0.06 | 86 | 1008.9 |
| 20260502044810 | 67 | 53 | 1.0 | 0.0 | 0.00 | 0.00 | 0.06 | 86 | 1008.9 |
| 20260502044702 | 67 | 39 | 1.0 | 0.0 | 0.00 | 0.00 | 0.06 | 86 | 1008.9 |
| 20260502044610 | 67 | 39 | 1.0 | 0.0 | 0.00 | 0.00 | 0.06 | 85 | 1008.7 |
| 20260502044505 | 67 | 38 | 1.0 | 0.0 | 0.00 | 0.00 | 0.06 | 86 | 1008.7 |
| 20260502044403 | 67 | 22 | 1.0 | 0.0 | 0.00 | 0.00 | 0.06 | 86 | 1008.7 |
| 20260502044306 | 67 | 17 | 1.0 | 0.0 | 0.00 | 0.00 | 0.06 | 85 | 1008.7 |
| 20260502044227 | 67 | 27 | 1.0 | 0.0 | 0.00 | 0.00 | 0.06 | 85 | 1008.7 |
| 20260502044104 | 67 | 26 | 2.0 | 0.0 | 0.00 | 0.00 | 0.06 | 85 | 1008.7 |
| 20260502044002 | 67 | 24 | 2.0 | 0.0 | 0.00 | 0.00 | 0.06 | 85 | 1008.7 |
| 20260502043924 | 67 | 15 | 2.0 | 0.0 | 0.00 | 0.00 | 0.06 | 85 | 1008.7 |
| 20260502043823 | 67 | 21 | 2.0 | 0.0 | 0.00 | 0.00 | 0.06 | 85 | 1008.7 |
| 20260502043717 | 67 | 26 | 2.0 | 0.0 | 0.00 | 0.00 | 0.06 | 85 | 1008.7 |
| 20260502043608 | 67 | 19 | 2.0 | 0.0 | 0.00 | 0.00 | 0.06 | 85 | 1008.7 |
| 20260502043530 | 67 | 51 | 2.0 | 0.0 | 0.00 | 0.00 | 0.06 | 85 | 1008.7 |
| 20260502043428 | 67 | 36 | 2.0 | 0.0 | 0.00 | 0.00 | 0.06 | 85 | 1008.7 |
| 20260502043319 | 67 | 44 | 2.0 | 0.0 | 0.00 | 0.00 | 0.06 | 85 | 1008.7 |
| 20260502043159 | 67 | 32 | 2.0 | 0.0 | 0.00 | 0.00 | 0.06 | 85 | 1008.7 |
| 20260502043123 | 67 | 56 | 2.0 | 0.0 | 0.00 | 0.00 | 0.06 | 85 | 1008.7 |
| 20260502043047 | 67 | 28 | 2.0 | 0.0 | 0.00 | 0.00 | 0.06 | 85 | 1008.6 |
| 20260502042918 | 67 | 276 | 2.0 | 0.0 | 0.00 | 0.00 | 0.06 | 85 | 1008.6 |
| 20260502042816 | 67 | 40 | 1.0 | 0.0 | 0.00 | 0.00 | 0.06 | 85 | 1008.6 |
| 20260502042739 | 67 | 27 | 1.0 | 0.0 | 0.00 | 0.00 | 0.06 | 85 | 1008.6 |
| 20260502042611 | 67 | 28 | 2.0 | 0.0 | 0.00 | 0.00 | 0.06 | 85 | 1008.6 |
| 20260502042511 | 67 | 346 | 2.0 | 0.0 | 0.00 | 0.00 | 0.06 | 85 | 1008.6 |
| 20260502042409 | 67 | 19 | 2.0 | 0.0 | 0.00 | 0.00 | 0.06 | 85 | 1008.6 |
| 20260502042330 | 67 | 36 | 2.0 | 0.0 | 0.00 | 0.00 | 0.06 | 85 | 1008.6 |
| 20260502042202 | 67 | 30 | 3.0 | 0.0 | 0.00 | 0.00 | 0.06 | 85 | 1008.6 |
| 20260502042115 | 67 | 5 | 3.0 | 0.0 | 0.00 | 0.00 | 0.06 | 85 | 1008.6 |
| 20260502042019 | 67 | 28 | 3.0 | 0.0 | 0.00 | 0.00 | 0.06 | 84 | 1008.6 |
| 20260502041911 | 68 | 58 | 3.0 | 0.0 | 0.00 | 0.00 | 0.06 | 85 | 1008.6 |
| 20260502041804 | 68 | 17 | 3.0 | 0.0 | 0.00 | 0.00 | 0.06 | 85 | 1008.7 |
| 20260502041707 | 68 | 340 | 3.0 | 0.0 | 0.00 | 0.00 | 0.06 | 85 | 1008.7 |
| 20260502041628 | 68 | 341 | 3.0 | 0.0 | 0.00 | 0.00 | 0.06 | 85 | 1008.7 |
| 20260502041523 | 68 | 32 | 2.0 | 0.0 | 0.00 | 0.00 | 0.06 | 85 | 1008.3 |
| 20260502041444 | 68 | 286 | 2.0 | 0.0 | 0.00 | 0.00 | 0.06 | 85 | 1008.3 |
| 20260502041335 | 68 | 37 | 2.0 | 0.0 | 0.00 | 0.00 | 0.06 | 85 | 1008.3 |
| 20260502041214 | 68 | 332 | 1.0 | 0.0 | 0.00 | 0.00 | 0.06 | 85 | 1008.3 |
| 20260502041110 | 68 | 17 | 1.0 | 0.0 | 0.00 | 0.00 | 0.06 | 85 | 1008.3 |
| 20260502041001 | 68 | 17 | 1.0 | 0.0 | 0.00 | 0.00 | 0.06 | 85 | 1008.3 |
| 20260502040910 | 68 | 48 | 1.0 | 0.0 | 0.00 | 0.00 | 0.06 | 84 | 1008.3 |
| 20260502040801 | 68 | 347 | 1.0 | 0.0 | 0.00 | 0.00 | 0.06 | 85 | 1008.3 |
| 20260502040659 | 68 | 334 | 1.0 | 0.0 | 0.00 | 0.00 | 0.06 | 85 | 1008.3 |
| 20260502040603 | 68 | 27 | 1.0 | 0.0 | 0.00 | 0.00 | 0.06 | 85 | 1008.3 |
| 20260502040515 | 68 | 318 | 1.0 | 0.0 | 0.00 | 0.00 | 0.06 | 85 | 1008.3 |
| 20260502040415 | 68 | 281 | 1.0 | 0.0 | 0.00 | 0.00 | 0.06 | 85 | 1008.3 |
| 20260502040314 | 68 | 17 | 1.0 | 0.0 | 0.00 | 0.00 | 0.06 | 85 | 1008.3 |
| 20260502040220 | 68 | 26 | 1.0 | 0.0 | 0.00 | 0.00 | 0.06 | 85 | 1008.3 |
| 20260502040131 | 68 | 39 | 0.0 | 0.0 | 0.00 | 0.00 | 0.06 | 86 | 1008.2 |
| 20260502040014 | 68 | 9 | 0.0 | 0.0 | 0.00 | 0.00 | 0.06 | 85 | 1008.2 |
| 20260502035925 | 68 | 355 | 0.0 | 0.0 | 0.00 | 0.00 | 0.06 | 85 | 1008.2 |
| 20260502035805 | 68 | 9 | 0.0 | 0.0 | 0.00 | 0.00 | 0.06 | 85 | 1008.2 |
| 20260502035718 | 68 | 63 | 0.0 | 0.0 | 0.00 | 0.00 | 0.06 | 85 | 1008.2 |
| 20260502035621 | 68 | 22 | 0.0 | 0.0 | 0.00 | 0.00 | 0.06 | 86 | 1008.2 |
| 20260502035512 | 68 | 5 | 0.0 | 0.0 | 0.00 | 0.00 | 0.06 | 86 | 1008.2 |
| 20260502035406 | 68 | 11 | 0.0 | 0.0 | 0.00 | 0.00 | 0.06 | 86 | 1008.2 |
| 20260502035328 | 68 | 28 | 0.0 | 0.0 | 0.00 | 0.00 | 0.06 | 86 | 1008.2 |
| 20260502035230 | 68 | 355 | 0.0 | 0.0 | 0.00 | 0.00 | 0.06 | 86 | 1008.2 |
| 20260502035121 | 68 | 337 | 0.0 | 0.0 | 0.00 | 0.00 | 0.06 | 86 | 1008.2 |
| 20260502035025 | 68 | 313 | 0.0 | 0.0 | 0.00 | 0.00 | 0.06 | 86 | 1008.2 |
| 20260502034923 | 68 | 19 | 1.0 | 0.0 | 0.00 | 0.00 | 0.06 | 86 | 1008.2 |
| 20260502034818 | 68 | 17 | 1.0 | 0.0 | 0.00 | 0.00 | 0.06 | 86 | 1008.2 |
| 20260502034707 | 68 | 17 | 1.0 | 0.0 | 0.00 | 0.00 | 0.06 | 86 | 1008.2 |
| 20260502034614 | 68 | 22 | 1.0 | 0.0 | 0.00 | 0.00 | 0.06 | 86 | 1007.7 |
| 20260502034524 | 68 | 23 | 1.0 | 0.0 | 0.00 | 0.00 | 0.06 | 86 | 1007.7 |
| 20260502034432 | 68 | 355 | 1.0 | 0.0 | 0.00 | 0.00 | 0.06 | 86 | 1007.7 |
| 20260502034315 | 68 | 17 | 1.0 | 0.0 | 0.00 | 0.00 | 0.06 | 86 | 1007.7 |
| 20260502034207 | 68 | 22 | 1.0 | 0.0 | 0.00 | 0.00 | 0.06 | 86 | 1007.7 |
| 20260502034128 | 68 | 347 | 1.0 | 0.0 | 0.00 | 0.00 | 0.06 | 86 | 1007.7 |
| 20260502034020 | 68 | 24 | 1.0 | 0.0 | 0.00 | 0.00 | 0.06 | 86 | 1007.7 |
| 20260502033927 | 68 | 38 | 1.0 | 0.0 | 0.00 | 0.00 | 0.06 | 85 | 1007.7 |
| 20260502033817 | 68 | 300 | 1.0 | 0.0 | 0.00 | 0.00 | 0.06 | 86 | 1007.7 |
| 20260502033721 | 68 | 20 | 1.0 | 0.0 | 0.00 | 0.00 | 0.06 | 86 | 1007.7 |
| 20260502033620 | 68 | 40 | 1.0 | 0.0 | 0.00 | 0.00 | 0.06 | 86 | 1007.7 |
| 20260502033510 | 68 | 30 | 1.0 | 0.0 | 0.00 | 0.00 | 0.06 | 86 | 1007.7 |
| 20260502033414 | 68 | 304 | 1.0 | 0.0 | 0.00 | 0.00 | 0.06 | 86 | 1007.7 |
| 20260502033327 | 68 | 25 | 1.0 | 0.0 | 0.00 | 0.00 | 0.06 | 86 | 1007.7 |
| 20260502033206 | 68 | 26 | 1.0 | 0.0 | 0.00 | 0.00 | 0.06 | 85 | 1007.7 |
| 20260502033109 | 68 | 39 | 1.0 | 0.0 | 0.00 | 0.00 | 0.06 | 86 | 1007.7 |
| 20260502033021 | 68 | 45 | 1.0 | 0.0 | 0.00 | 0.00 | 0.06 | 86 | 1007.7 |
| 20260502032921 | 68 | 45 | 1.0 | 0.0 | 0.00 | 0.00 | 0.06 | 86 | 1007.7 |
| 20260502032816 | 68 | 13 | 1.0 | 0.0 | 0.00 | 0.00 | 0.06 | 86 | 1007.7 |
| 20260502032721 | 68 | 13 | 1.0 | 0.0 | 0.00 | 0.00 | 0.06 | 86 | 1007.7 |
| 20260502032616 | 68 | 15 | 1.0 | 0.0 | 0.00 | 0.00 | 0.06 | 86 | 1007.7 |
| 20260502032537 | 68 | 29 | 1.0 | 0.0 | 0.00 | 0.00 | 0.06 | 85 | 1007.7 |
| 20260502032408 | 68 | 37 | 0.0 | 0.0 | 0.00 | 0.00 | 0.06 | 85 | 1007.7 |
| 20260502032328 | 68 | 28 | 0.0 | 0.0 | 0.00 | 0.00 | 0.06 | 85 | 1007.7 |
| 20260502032201 | 68 | 360 | 0.0 | 0.0 | 0.00 | 0.00 | 0.06 | 85 | 1007.7 |
| 20260502032123 | 68 | 34 | 0.0 | 0.0 | 0.00 | 0.00 | 0.06 | 85 | 1007.7 |
| 20260502032018 | 68 | 313 | 0.0 | 0.0 | 0.00 | 0.00 | 0.06 | 85 | 1007.7 |
| 20260502031924 | 69 | 23 | 0.0 | 0.0 | 0.00 | 0.00 | 0.06 | 85 | 1007.7 |
| 20260502031815 | 68 | 23 | 0.0 | 0.0 | 0.00 | 0.00 | 0.06 | 85 | 1007.7 |
| 20260502031709 | 69 | 28 | 0.0 | 0.0 | 0.00 | 0.00 | 0.06 | 85 | 1007.7 |
| 20260502031559 | 69 | 309 | 0.0 | 0.0 | 0.00 | 0.00 | 0.06 | 85 | 1007.3 |
| 20260502031504 | 69 | 309 | 0.0 | 0.0 | 0.00 | 0.00 | 0.06 | 85 | 1007.4 |
| 20260502031426 | 69 | 296 | 0.0 | 0.0 | 0.00 | 0.00 | 0.06 | 85 | 1007.4 |
| 20260502031319 | 69 | 25 | 1.0 | 0.0 | 0.00 | 0.00 | 0.06 | 85 | 1007.3 |
| 20260502031215 | 69 | 25 | 1.0 | 0.0 | 0.00 | 0.00 | 0.06 | 85 | 1007.4 |
| 20260502031115 | 69 | 307 | 1.0 | 0.0 | 0.00 | 0.00 | 0.06 | 85 | 1007.4 |
| 20260502031009 | 69 | 350 | 1.0 | 0.0 | 0.00 | 0.00 | 0.06 | 85 | 1007.4 |
| 20260502030909 | 69 | 350 | 1.0 | 0.0 | 0.00 | 0.00 | 0.06 | 85 | 1007.4 |
| 20260502030808 | 69 | 350 | 1.0 | 0.0 | 0.00 | 0.00 | 0.06 | 85 | 1007.4 |
| 20260502030715 | 69 | 350 | 1.0 | 0.0 | 0.00 | 0.00 | 0.06 | 85 | 1007.4 |
| 20260502030610 | 69 | 350 | 1.0 | 0.0 | 0.00 | 0.00 | 0.06 | 85 | 1007.4 |
| 20260502030517 | 69 | 19 | 1.0 | 0.0 | 0.00 | 0.00 | 0.06 | 85 | 1007.4 |
| 20260502030441 | 69 | 34 | 0.0 | 0.0 | 0.00 | 0.00 | 0.06 | 85 | 1007.4 |
| 20260502030312 | 69 | 39 | 0.0 | 0.0 | 0.00 | 0.00 | 0.06 | 85 | 1007.4 |
| 20260502030233 | 69 | 17 | 0.0 | 0.0 | 0.00 | 0.00 | 0.06 | 85 | 1007.4 |
| 20260502030024 | 69 | 49 | 0.0 | 0.0 | 0.00 | 0.00 | 0.06 | 85 | 1007.2 |
| 20260502025917 | 69 | 15 | 0.0 | 0.0 | 0.00 | 0.00 | 0.06 | 85 | 1007.2 |
| 20260502025812 | 69 | 23 | 0.0 | 0.0 | 0.00 | 0.00 | 0.06 | 85 | 1007.2 |
| 20260502025737 | 69 | 23 | 0.0 | 0.0 | 0.00 | 0.00 | 0.06 | 85 | 1007.2 |
| 20260502025641 | 69 | 22 | 0.0 | 0.0 | 0.00 | 0.00 | 0.06 | 85 | 1007.2 |
| 20260502025531 | 69 | 43 | 0.0 | 0.0 | 0.00 | 0.00 | 0.06 | 85 | 1007.2 |
| 20260502025413 | 69 | 349 | 0.0 | 0.0 | 0.00 | 0.00 | 0.06 | 85 | 1007.2 |
| 20260502025331 | 69 | 349 | 0.0 | 0.0 | 0.00 | 0.00 | 0.06 | 86 | 1007.2 |
| 20260502025252 | 69 | 349 | 0.0 | 0.0 | 0.00 | 0.00 | 0.06 | 86 | 1007.2 |
| 20260502025152 | 69 | 42 | 0.0 | 0.0 | 0.00 | 0.00 | 0.06 | 86 | 1007.2 |
| 20260502025003 | 69 | 47 | 0.0 | 0.0 | 0.00 | 0.00 | 0.06 | 86 | 1007.2 |
| 20260502024915 | 69 | 47 | 0.0 | 0.0 | 0.00 | 0.00 | 0.06 | 86 | 1007.2 |
| 20260502024816 | 69 | 29 | 0.0 | 0.0 | 0.00 | 0.00 | 0.06 | 86 | 1007.2 |
| 20260502024712 | 69 | 29 | 0.0 | 0.0 | 0.00 | 0.00 | 0.06 | 86 | 1007.2 |
| 20260502024618 | 69 | 29 | 0.0 | 0.0 | 0.00 | 0.00 | 0.06 | 86 | 1006.6 |
| 20260502024508 | 69 | 29 | 0.0 | 0.0 | 0.00 | 0.00 | 0.06 | 86 | 1006.6 |
| 20260502024400 | 69 | 29 | 0.0 | 0.0 | 0.00 | 0.00 | 0.06 | 86 | 1006.6 |
| 20260502024324 | 69 | 29 | 0.0 | 0.0 | 0.00 | 0.00 | 0.06 | 86 | 1006.6 |
| 20260502024201 | 69 | 30 | 0.0 | 0.0 | 0.00 | 0.00 | 0.06 | 86 | 1006.6 |
| 20260502024112 | 69 | 346 | 0.0 | 0.0 | 0.00 | 0.00 | 0.06 | 86 | 1006.6 |
| 20260502024018 | 69 | 44 | 0.0 | 0.0 | 0.00 | 0.00 | 0.06 | 86 | 1006.6 |
| 20260502023910 | 69 | 336 | 0.0 | 0.0 | 0.00 | 0.00 | 0.06 | 86 | 1006.6 |
| 20260502023810 | 69 | 336 | 0.0 | 0.0 | 0.00 | 0.00 | 0.06 | 86 | 1006.6 |
| 20260502023704 | 69 | 45 | 0.0 | 0.0 | 0.00 | 0.00 | 0.06 | 87 | 1006.6 |
| 20260502023625 | 69 | 38 | 0.0 | 0.0 | 0.00 | 0.00 | 0.06 | 87 | 1006.6 |
| 20260502023457 | 69 | 38 | 0.0 | 0.0 | 0.00 | 0.00 | 0.06 | 87 | 1006.6 |
| 20260502023410 | 69 | 39 | 0.0 | 0.0 | 0.00 | 0.00 | 0.06 | 87 | 1006.6 |
| 20260502023316 | 69 | 36 | 0.0 | 0.0 | 0.00 | 0.00 | 0.06 | 86 | 1006.6 |
| 20260502023207 | 69 | 30 | 0.0 | 0.0 | 0.00 | 0.00 | 0.06 | 87 | 1006.6 |
| 20260502023129 | 69 | 19 | 0.0 | 0.0 | 0.00 | 0.00 | 0.06 | 87 | 1006.6 |
| 20260502023001 | 69 | 42 | 0.0 | 0.0 | 0.00 | 0.00 | 0.06 | 87 | 1006.1 |
| 20260502022914 | 69 | 16 | 0.0 | 0.0 | 0.00 | 0.00 | 0.06 | 87 | 1006.1 |
| 20260502022812 | 69 | 24 | 0.0 | 0.0 | 0.00 | 0.00 | 0.06 | 87 | 1006.1 |
| 20260502022710 | 69 | 11 | 0.0 | 0.0 | 0.00 | 0.00 | 0.06 | 87 | 1006.1 |
| 20260502022619 | 69 | 11 | 0.0 | 0.0 | 0.00 | 0.00 | 0.06 | 87 | 1006.1 |
| 20260502022511 | 69 | 24 | 0.0 | 0.0 | 0.00 | 0.00 | 0.06 | 87 | 1006.1 |
| 20260502022406 | 69 | 345 | 0.0 | 0.0 | 0.00 | 0.00 | 0.06 | 87 | 1006.1 |
| 20260502022326 | 69 | 344 | 0.0 | 0.0 | 0.00 | 0.00 | 0.06 | 87 | 1006.1 |
| 20260502022231 | 69 | 345 | 0.0 | 0.0 | 0.00 | 0.00 | 0.06 | 87 | 1006.1 |
| 20260502022123 | 69 | 5 | 0.0 | 0.0 | 0.00 | 0.00 | 0.06 | 87 | 1006.1 |
| 20260502022028 | 69 | 5 | 0.0 | 0.0 | 0.00 | 0.00 | 0.06 | 87 | 1006.1 |
| 20260502021940 | 69 | 60 | 0.0 | 0.0 | 0.00 | 0.00 | 0.06 | 87 | 1006.1 |
| 20260502021818 | 69 | 30 | 0.0 | 0.0 | 0.00 | 0.00 | 0.06 | 87 | 1006.1 |
| 20260502021714 | 69 | 17 | 0.0 | 0.0 | 0.00 | 0.00 | 0.06 | 87 | 1006.1 |
| 20260502021609 | 69 | 30 | 0.0 | 0.0 | 0.00 | 0.00 | 0.06 | 87 | 1005.6 |
| 20260502021512 | 69 | 18 | 0.0 | 0.0 | 0.00 | 0.00 | 0.06 | 87 | 1005.6 |
| 20260502021404 | 69 | 20 | 0.0 | 0.0 | 0.00 | 0.00 | 0.06 | 87 | 1005.6 |
| 20260502021304 | 69 | 58 | 0.0 | 0.0 | 0.00 | 0.00 | 0.06 | 87 | 1005.6 |
| 20260502021216 | 69 | 22 | 0.0 | 0.0 | 0.00 | 0.00 | 0.06 | 87 | 1005.6 |
| 20260502021120 | 69 | 22 | 0.0 | 0.0 | 0.00 | 0.00 | 0.06 | 87 | 1005.6 |
| 20260502021015 | 69 | 22 | 0.0 | 0.0 | 0.00 | 0.00 | 0.06 | 87 | 1005.6 |
| 20260502020916 | 69 | 12 | 1.0 | 0.0 | 0.00 | 0.00 | 0.06 | 87 | 1005.6 |
| 20260502020810 | 69 | 344 | 1.0 | 0.0 | 0.00 | 0.00 | 0.06 | 87 | 1005.6 |
| 20260502020702 | 69 | 51 | 1.0 | 0.0 | 0.00 | 0.00 | 0.06 | 87 | 1005.6 |
| 20260502020622 | 69 | 26 | 1.0 | 0.0 | 0.00 | 0.00 | 0.06 | 87 | 1005.6 |
| 20260502020459 | 69 | 41 | 1.0 | 0.0 | 0.00 | 0.00 | 0.06 | 87 | 1005.6 |
| 20260502020411 | 69 | 45 | 1.0 | 0.0 | 0.00 | 0.00 | 0.06 | 87 | 1005.6 |
| 20260502020310 | 69 | 360 | 2.0 | 0.0 | 0.00 | 0.00 | 0.06 | 87 | 1005.6 |
| 20260502020220 | 69 | 17 | 2.0 | 0.0 | 0.00 | 0.00 | 0.06 | 87 | 1005.6 |
| 20260502020113 | 69 | 49 | 2.0 | 0.0 | 0.00 | 0.00 | 0.06 | 87 | 1005.4 |
| 20260502020014 | 69 | 9 | 2.0 | 0.0 | 0.00 | 0.00 | 0.06 | 87 | 1005.4 |
| 20260502015907 | 69 | 360 | 2.0 | 0.0 | 0.00 | 0.00 | 0.06 | 86 | 1005.4 |
| 20260502015801 | 69 | 350 | 2.0 | 0.0 | 0.00 | 0.00 | 0.06 | 87 | 1005.4 |
| 20260502015727 | 69 | 26 | 2.0 | 0.0 | 0.00 | 0.00 | 0.06 | 87 | 1005.4 |
| 20260502015626 | 69 | 348 | 2.0 | 0.0 | 0.00 | 0.00 | 0.06 | 87 | 1005.4 |
| 20260502015504 | 69 | 339 | 2.0 | 0.0 | 0.00 | 0.00 | 0.06 | 87 | 1005.4 |
| 20260502015418 | 69 | 339 | 2.0 | 0.0 | 0.00 | 0.00 | 0.06 | 87 | 1005.4 |
| 20260502015321 | 69 | 18 | 2.0 | 0.0 | 0.00 | 0.00 | 0.06 | 87 | 1005.4 |
| 20260502015233 | 69 | 13 | 1.0 | 0.0 | 0.00 | 0.00 | 0.06 | 87 | 1005.4 |
| 20260502015111 | 69 | 20 | 0.0 | 0.0 | 0.00 | 0.00 | 0.06 | 87 | 1005.4 |
| 20260502015002 | 69 | 344 | 0.0 | 0.0 | 0.00 | 0.00 | 0.06 | 87 | 1005.4 |
| 20260502014925 | 69 | 26 | 0.0 | 0.0 | 0.00 | 0.00 | 0.06 | 87 | 1005.4 |
| 20260502014837 | 69 | 44 | 0.0 | 0.0 | 0.00 | 0.00 | 0.06 | 87 | 1005.4 |
| 20260502014717 | 69 | 44 | 0.0 | 0.0 | 0.00 | 0.00 | 0.06 | 87 | 1005.4 |
| 20260502014614 | 69 | 38 | 0.0 | 0.0 | 0.00 | 0.00 | 0.06 | 87 | 1005.1 |
| 20260502014515 | 70 | 35 | 0.0 | 0.0 | 0.00 | 0.00 | 0.06 | 87 | 1005.1 |
| 20260502014407 | 70 | 5 | 0.0 | 0.0 | 0.00 | 0.00 | 0.06 | 88 | 1005.1 |
| 20260502014329 | 70 | 11 | 0.0 | 0.0 | 0.00 | 0.00 | 0.06 | 87 | 1005.1 |
| 20260502014200 | 70 | 28 | 0.0 | 0.0 | 0.00 | 0.00 | 0.06 | 87 | 1005.1 |
| 20260502014113 | 70 | 300 | 0.0 | 0.0 | 0.00 | 0.00 | 0.06 | 87 | 1005.1 |
| 20260502014014 | 70 | 347 | 0.0 | 0.0 | 0.00 | 0.00 | 0.06 | 87 | 1005.1 |
| 20260502013909 | 70 | 349 | 0.0 | 0.0 | 0.00 | 0.00 | 0.06 | 87 | 1005.1 |
| 20260502013830 | 70 | 338 | 0.0 | 0.0 | 0.00 | 0.00 | 0.06 | 87 | 1005.1 |
| 20260502013703 | 70 | 360 | 0.0 | 0.0 | 0.00 | 0.00 | 0.06 | 87 | 1005.1 |
| 20260502013616 | 70 | 360 | 0.0 | 0.0 | 0.00 | 0.00 | 0.06 | 87 | 1005.1 |
| 20260502013517 | 70 | 20 | 1.0 | 0.0 | 0.00 | 0.00 | 0.06 | 87 | 1005.1 |
| 20260502013409 | 70 | 24 | 1.0 | 0.0 | 0.00 | 0.00 | 0.06 | 87 | 1005.1 |
| 20260502013330 | 70 | 16 | 1.0 | 0.0 | 0.00 | 0.00 | 0.06 | 87 | 1005.1 |
| 20260502013204 | 70 | 47 | 1.0 | 0.0 | 0.00 | 0.00 | 0.06 | 87 | 1005.1 |
| 20260502013128 | 70 | 19 | 1.0 | 0.0 | 0.00 | 0.00 | 0.06 | 87 | 1004.6 |
| 20260502013022 | 70 | 36 | 1.0 | 0.0 | 0.00 | 0.00 | 0.06 | 87 | 1004.6 |
| 20260502012922 | 70 | 338 | 1.0 | 0.0 | 0.00 | 0.00 | 0.06 | 87 | 1004.6 |
| 20260502012814 | 70 | 20 | 2.0 | 0.0 | 0.00 | 0.00 | 0.06 | 86 | 1004.6 |
| 20260502012738 | 70 | 25 | 2.0 | 0.0 | 0.00 | 0.00 | 0.06 | 86 | 1004.6 |
| 20260502012608 | 70 | 25 | 2.0 | 0.0 | 0.00 | 0.00 | 0.06 | 86 | 1004.6 |
| 20260502012532 | 70 | 32 | 1.0 | 0.0 | 0.00 | 0.00 | 0.06 | 86 | 1004.6 |
| 20260502012404 | 70 | 39 | 1.0 | 0.0 | 0.00 | 0.00 | 0.06 | 86 | 1004.6 |
| 20260502012308 | 70 | 42 | 1.0 | 0.0 | 0.00 | 0.00 | 0.06 | 86 | 1004.6 |
| 20260502012200 | 70 | 5 | 1.0 | 0.0 | 0.00 | 0.00 | 0.06 | 86 | 1004.6 |
| 20260502012124 | 70 | 12 | 1.0 | 0.0 | 0.00 | 0.00 | 0.06 | 86 | 1004.6 |
| 20260502012016 | 70 | 26 | 2.0 | 0.0 | 0.00 | 0.00 | 0.06 | 86 | 1004.6 |
| 20260502011908 | 70 | 27 | 2.0 | 0.0 | 0.00 | 0.00 | 0.06 | 86 | 1004.6 |
| 20260502011809 | 70 | 15 | 2.0 | 0.0 | 0.00 | 0.00 | 0.06 | 86 | 1004.6 |
| 20260502011702 | 70 | 17 | 1.0 | 0.0 | 0.00 | 0.00 | 0.06 | 86 | 1004.6 |
| 20260502011603 | 70 | 65 | 1.0 | 0.0 | 0.00 | 0.00 | 0.06 | 86 | 1004.4 |
| 20260502011505 | 70 | 29 | 1.0 | 0.0 | 0.00 | 0.00 | 0.06 | 86 | 1004.4 |
| 20260502011418 | 70 | 31 | 1.0 | 0.0 | 0.00 | 0.00 | 0.06 | 86 | 1004.4 |
| 20260502011318 | 70 | 17 | 1.0 | 0.0 | 0.00 | 0.00 | 0.06 | 86 | 1004.4 |
| 20260502011209 | 70 | 42 | 1.0 | 0.0 | 0.00 | 0.00 | 0.06 | 86 | 1004.4 |
| 20260502011111 | 70 | 36 | 1.0 | 0.0 | 0.00 | 0.00 | 0.06 | 86 | 1004.4 |
| 20260502011024 | 70 | 30 | 1.0 | 0.0 | 0.00 | 0.00 | 0.06 | 86 | 1004.4 |
| 20260502010931 | 70 | 29 | 1.0 | 0.0 | 0.00 | 0.00 | 0.06 | 86 | 1004.4 |
| 20260502010851 | 70 | 308 | 1.0 | 0.0 | 0.00 | 0.00 | 0.06 | 86 | 1004.4 |
| 20260502010705 | 70 | 9 | 1.0 | 0.0 | 0.00 | 0.00 | 0.06 | 86 | 1004.4 |
| 20260502010602 | 70 | 349 | 1.0 | 0.0 | 0.00 | 0.00 | 0.06 | 86 | 1004.4 |
| 20260502010527 | 70 | 350 | 1.0 | 0.0 | 0.00 | 0.00 | 0.06 | 86 | 1004.4 |
| 20260502010419 | 70 | 290 | 0.0 | 0.0 | 0.00 | 0.00 | 0.06 | 86 | 1004.4 |
| 20260502010311 | 70 | 287 | 0.0 | 0.0 | 0.00 | 0.00 | 0.06 | 86 | 1004.4 |
| 20260502010212 | 70 | 5 | 0.0 | 0.0 | 0.00 | 0.00 | 0.06 | 86 | 1004.4 |
| 20260502010105 | 70 | 16 | 0.0 | 0.0 | 0.00 | 0.00 | 0.06 | 87 | 1004.0 |
| 20260502010007 | 70 | 349 | 1.0 | 0.0 | 0.00 | 0.00 | 0.06 | 87 | 1004.0 |
| 20260502005904 | 70 | 29 | 1.0 | 0.0 | 0.00 | 0.00 | 0.06 | 87 | 1004.0 |
| 20260502005805 | 70 | 17 | 1.0 | 0.0 | 0.00 | 0.00 | 0.06 | 87 | 1004.0 |
| 20260502005659 | 70 | 55 | 1.0 | 0.0 | 0.00 | 0.00 | 0.06 | 86 | 1004.0 |
| 20260502005625 | 70 | 342 | 1.0 | 0.0 | 0.00 | 0.00 | 0.06 | 86 | 1004.0 |
| 20260502005537 | 70 | 34 | 1.0 | 0.0 | 0.00 | 0.00 | 0.06 | 86 | 1004.0 |
| 20260502005423 | 70 | 26 | 1.0 | 0.0 | 0.00 | 0.00 | 0.06 | 87 | 1004.0 |
| 20260502005316 | 70 | 331 | 2.0 | 0.0 | 0.00 | 0.00 | 0.06 | 87 | 1004.0 |
| 20260502005219 | 70 | 19 | 2.0 | 0.0 | 0.00 | 0.00 | 0.06 | 86 | 1004.0 |
| 20260502005114 | 70 | 24 | 1.0 | 0.0 | 0.00 | 0.00 | 0.06 | 86 | 1004.0 |
| 20260502005036 | 70 | 19 | 1.0 | 0.0 | 0.00 | 0.00 | 0.06 | 86 | 1004.0 |
| 20260502004909 | 70 | 14 | 1.0 | 0.0 | 0.00 | 0.00 | 0.06 | 86 | 1004.0 |
| 20260502004837 | 70 | 16 | 1.0 | 0.0 | 0.00 | 0.00 | 0.06 | 86 | 1004.0 |
| 20260502004707 | 70 | 300 | 1.0 | 0.0 | 0.00 | 0.00 | 0.06 | 86 | 1004.0 |
| 20260502004608 | 70 | 300 | 1.0 | 0.0 | 0.00 | 0.00 | 0.06 | 86 | 1004.0 |
| 20260502004519 | 70 | 22 | 1.0 | 0.0 | 0.00 | 0.00 | 0.06 | 86 | 1004.0 |
| 20260502004418 | 70 | 294 | 1.0 | 0.0 | 0.00 | 0.00 | 0.06 | 86 | 1004.0 |
| 20260502004316 | 70 | 27 | 1.0 | 0.0 | 0.00 | 0.00 | 0.06 | 86 | 1004.0 |
| 20260502004237 | 70 | 34 | 1.0 | 0.0 | 0.00 | 0.00 | 0.06 | 86 | 1004.0 |
| 20260502004110 | 70 | 35 | 1.0 | 0.0 | 0.00 | 0.00 | 0.06 | 86 | 1004.0 |
| 20260502004010 | 70 | 34 | 1.0 | 0.0 | 0.00 | 0.00 | 0.06 | 86 | 1004.0 |
| 20260502003902 | 70 | 26 | 1.0 | 0.0 | 0.00 | 0.00 | 0.06 | 86 | 1004.0 |
| 20260502003826 | 70 | 344 | 1.0 | 0.0 | 0.00 | 0.00 | 0.06 | 86 | 1004.0 |
| 20260502003717 | 70 | 26 | 1.0 | 0.0 | 0.00 | 0.00 | 0.06 | 86 | 1004.0 |
| 20260502003621 | 70 | 336 | 1.0 | 0.0 | 0.00 | 0.00 | 0.06 | 86 | 1004.0 |
| 20260502003524 | 70 | 300 | 1.0 | 0.0 | 0.00 | 0.00 | 0.06 | 86 | 1004.0 |
| 20260502003423 | 70 | 41 | 1.0 | 0.0 | 0.00 | 0.00 | 0.06 | 86 | 1004.0 |
| 20260502003321 | 71 | 274 | 1.0 | 0.0 | 0.00 | 0.00 | 0.06 | 86 | 1004.0 |
| 20260502003242 | 71 | 11 | 1.0 | 0.0 | 0.00 | 0.00 | 0.06 | 86 | 1004.0 |
| 20260502003112 | 71 | 15 | 1.0 | 0.0 | 0.00 | 0.00 | 0.06 | 86 | 1003.6 |
| 20260502003013 | 71 | 36 | 1.0 | 0.0 | 0.00 | 0.00 | 0.06 | 86 | 1003.6 |
| 20260502002904 | 71 | 19 | 1.0 | 0.0 | 0.00 | 0.00 | 0.06 | 86 | 1003.6 |
| 20260502002825 | 71 | 19 | 1.0 | 0.0 | 0.00 | 0.00 | 0.06 | 86 | 1003.6 |
| 20260502002705 | 71 | 301 | 1.0 | 0.0 | 0.00 | 0.00 | 0.06 | 86 | 1003.6 |
| 20260502002617 | 71 | 360 | 1.0 | 0.0 | 0.00 | 0.00 | 0.06 | 86 | 1003.6 |
| 20260502002518 | 71 | 355 | 1.0 | 0.0 | 0.00 | 0.00 | 0.06 | 86 | 1003.6 |
| 20260502002413 | 71 | 294 | 1.0 | 0.0 | 0.00 | 0.00 | 0.06 | 86 | 1003.6 |
| 20260502002306 | 71 | 310 | 1.0 | 0.0 | 0.00 | 0.00 | 0.06 | 86 | 1003.6 |
| 20260502002207 | 71 | 76 | 1.0 | 0.0 | 0.00 | 0.00 | 0.06 | 86 | 1003.6 |
| 20260502002120 | 71 | 348 | 1.0 | 0.0 | 0.00 | 0.00 | 0.06 | 86 | 1003.6 |
| 20260502002024 | 71 | 360 | 1.0 | 0.0 | 0.00 | 0.00 | 0.06 | 86 | 1003.6 |
| 20260502001915 | 71 | 319 | 1.0 | 0.0 | 0.00 | 0.00 | 0.06 | 86 | 1003.6 |
| 20260502001808 | 71 | 26 | 1.0 | 0.0 | 0.00 | 0.00 | 0.06 | 86 | 1003.6 |
| 20260502001708 | 71 | 298 | 1.0 | 0.0 | 0.00 | 0.00 | 0.06 | 86 | 1003.6 |
| 20260502001601 | 71 | 308 | 1.0 | 0.0 | 0.00 | 0.00 | 0.06 | 86 | 1003.5 |
| 20260502001525 | 71 | 311 | 1.0 | 0.0 | 0.00 | 0.00 | 0.06 | 86 | 1003.5 |
| 20260502001419 | 71 | 328 | 1.0 | 0.0 | 0.00 | 0.00 | 0.06 | 87 | 1003.5 |
| 20260502001317 | 71 | 25 | 1.0 | 0.0 | 0.00 | 0.00 | 0.06 | 86 | 1003.5 |
| 20260502001217 | 71 | 18 | 1.0 | 0.0 | 0.00 | 0.00 | 0.06 | 86 | 1003.5 |
| 20260502001109 | 71 | 14 | 1.0 | 0.0 | 0.00 | 0.00 | 0.06 | 86 | 1003.5 |
| 20260502001004 | 71 | 351 | 1.0 | 0.0 | 0.00 | 0.00 | 0.06 | 86 | 1003.5 |
| 20260502000905 | 71 | 349 | 1.0 | 0.0 | 0.00 | 0.00 | 0.06 | 86 | 1003.5 |
| 20260502000820 | 71 | 18 | 1.0 | 0.0 | 0.00 | 0.00 | 0.06 | 86 | 1003.5 |
| 20260502000721 | 71 | 23 | 1.0 | 0.0 | 0.00 | 0.00 | 0.06 | 87 | 1003.5 |
| 20260502000632 | 71 | 294 | 1.0 | 0.0 | 0.00 | 0.00 | 0.06 | 86 | 1003.5 |
| 20260502000519 | 71 | 269 | 1.0 | 0.0 | 0.00 | 0.00 | 0.06 | 87 | 1003.5 |
| 20260502000411 | 71 | 351 | 1.0 | 0.0 | 0.00 | 0.00 | 0.06 | 87 | 1003.5 |
| 20260502000332 | 71 | 12 | 1.0 | 0.0 | 0.00 | 0.00 | 0.06 | 87 | 1003.5 |
| 20260502000226 | 71 | 297 | 2.0 | 0.0 | 0.00 | 0.00 | 0.06 | 87 | 1003.5 |
| 20260502000104 | 71 | 307 | 1.0 | 0.0 | 0.00 | 0.00 | 0.06 | 87 | 1003.0 |
| 20260502000015 | 71 | 19 | 1.0 | 0.0 | 0.00 | 0.00 | 0.06 | 87 | 1003.0 |
| 20260501235914 | 71 | 313 | 2.0 | 0.0 | 0.00 | 0.00 | 0.06 | 87 | 1003.0 |
| 20260501235812 | 71 | 355 | 2.0 | 0.0 | 0.00 | 0.00 | 0.06 | 87 | 1003.0 |
| 20260501235718 | 71 | 347 | 2.0 | 0.0 | 0.00 | 0.00 | 0.06 | 87 | 1003.0 |
| 20260501235609 | 71 | 22 | 3.0 | 0.0 | 0.00 | 0.00 | 0.06 | 87 | 1003.0 |
| 20260501235504 | 71 | 340 | 3.0 | 0.0 | 0.00 | 0.00 | 0.06 | 87 | 1003.0 |
| 20260501235425 | 72 | 340 | 3.0 | 0.0 | 0.00 | 0.00 | 0.06 | 87 | 1003.0 |
| 20260501235319 | 72 | 355 | 3.0 | 0.0 | 0.00 | 0.00 | 0.06 | 87 | 1003.0 |
| 20260501235209 | 72 | 36 | 2.0 | 0.0 | 0.00 | 0.00 | 0.06 | 87 | 1003.0 |
| 20260501235109 | 72 | 60 | 2.0 | 0.0 | 0.00 | 0.00 | 0.06 | 87 | 1003.0 |
| 20260501235008 | 72 | 320 | 2.0 | 0.0 | 0.00 | 0.00 | 0.06 | 86 | 1003.0 |
| 20260501234908 | 72 | 24 | 2.0 | 0.0 | 0.00 | 0.00 | 0.06 | 86 | 1003.0 |
| 20260501234821 | 72 | 17 | 2.0 | 0.0 | 0.00 | 0.00 | 0.06 | 86 | 1003.0 |
| 20260501234748 | 72 | 355 | 2.0 | 0.0 | 0.00 | 0.00 | 0.06 | 86 | 1003.0 |
| 20260501234646 | 72 | 38 | 1.0 | 0.0 | 0.00 | 0.00 | 0.06 | 86 | 1003.0 |
| 20260501234500 | 72 | 24 | 1.0 | 0.0 | 0.00 | 0.00 | 0.06 | 86 | 1002.5 |
| 20260501234410 | 72 | 51 | 1.0 | 0.0 | 0.00 | 0.00 | 0.06 | 86 | 1002.5 |
| 20260501234317 | 72 | 355 | 1.0 | 0.0 | 0.00 | 0.00 | 0.06 | 86 | 1002.5 |
| 20260501234211 | 72 | 36 | 1.0 | 0.0 | 0.00 | 0.00 | 0.06 | 86 | 1002.5 |
| 20260501234107 | 72 | 47 | 1.0 | 0.0 | 0.00 | 0.00 | 0.06 | 86 | 1002.5 |
| 20260501234007 | 72 | 355 | 1.0 | 0.0 | 0.00 | 0.00 | 0.06 | 86 | 1002.5 |
| 20260501233923 | 72 | 48 | 1.0 | 0.0 | 0.00 | 0.00 | 0.06 | 86 | 1002.5 |
| 20260501233825 | 72 | 22 | 1.0 | 0.0 | 0.00 | 0.00 | 0.06 | 86 | 1002.5 |
| 20260501233747 | 72 | 290 | 1.0 | 0.0 | 0.00 | 0.00 | 0.06 | 86 | 1002.5 |
| 20260501233618 | 73 | 300 | 1.0 | 0.0 | 0.00 | 0.00 | 0.06 | 86 | 1002.5 |
| 20260501233510 | 73 | 340 | 1.0 | 0.0 | 0.00 | 0.00 | 0.06 | 86 | 1002.5 |
| 20260501233415 | 73 | 275 | 1.0 | 0.0 | 0.00 | 0.00 | 0.06 | 86 | 1002.5 |
| 20260501233313 | 73 | 288 | 1.0 | 0.0 | 0.00 | 0.00 | 0.06 | 86 | 1002.5 |
| 20260501233204 | 73 | 22 | 1.0 | 0.0 | 0.00 | 0.00 | 0.06 | 86 | 1002.5 |
| 20260501233125 | 73 | 293 | 1.0 | 0.0 | 0.00 | 0.00 | 0.06 | 86 | 1001.9 |
| 20260501233026 | 73 | 336 | 1.0 | 0.0 | 0.00 | 0.00 | 0.06 | 86 | 1001.9 |
| 20260501232916 | 73 | 5 | 1.0 | 0.0 | 0.00 | 0.00 | 0.06 | 86 | 1001.9 |
| 20260501232818 | 73 | 290 | 1.0 | 0.0 | 0.00 | 0.00 | 0.06 | 85 | 1001.9 |
| 20260501232710 | 73 | 344 | 1.0 | 0.0 | 0.00 | 0.00 | 0.06 | 86 | 1001.9 |
| 20260501232610 | 73 | 346 | 1.0 | 0.0 | 0.00 | 0.00 | 0.06 | 86 | 1001.9 |
| 20260501232510 | 73 | 46 | 0.0 | 0.0 | 0.00 | 0.00 | 0.06 | 86 | 1001.9 |
| 20260501232432 | 73 | 244 | 0.0 | 0.0 | 0.00 | 0.00 | 0.06 | 86 | 1001.9 |
| 20260501232305 | 73 | 17 | 0.0 | 0.0 | 0.00 | 0.00 | 0.06 | 86 | 1001.9 |
| 20260501232224 | 73 | 294 | 0.0 | 0.0 | 0.00 | 0.00 | 0.06 | 86 | 1001.9 |
| 20260501232116 | 73 | 296 | 0.0 | 0.0 | 0.00 | 0.00 | 0.06 | 86 | 1001.9 |
| 20260501232011 | 73 | 300 | 0.0 | 0.0 | 0.00 | 0.00 | 0.06 | 86 | 1001.9 |
| 20260501231931 | 73 | 288 | 0.0 | 0.0 | 0.00 | 0.00 | 0.06 | 86 | 1001.9 |
| 20260501231818 | 73 | 288 | 0.0 | 0.0 | 0.00 | 0.00 | 0.06 | 86 | 1002.0 |
| 20260501231709 | 74 | 337 | 0.0 | 0.0 | 0.00 | 0.00 | 0.06 | 86 | 1001.9 |
| 20260501231630 | 73 | 340 | 0.0 | 0.0 | 0.00 | 0.00 | 0.06 | 86 | 1001.9 |
| 20260501231502 | 73 | 317 | 0.0 | 0.0 | 0.00 | 0.00 | 0.06 | 86 | 1001.8 |
| 20260501231417 | 73 | 296 | 0.0 | 0.0 | 0.00 | 0.00 | 0.06 | 86 | 1001.8 |
| 20260501231323 | 73 | 299 | 0.0 | 0.0 | 0.00 | 0.00 | 0.06 | 86 | 1001.8 |
| 20260501231239 | 73 | 267 | 0.0 | 0.0 | 0.00 | 0.00 | 0.06 | 86 | 1001.8 |
| 20260501231119 | 73 | 267 | 0.0 | 0.0 | 0.00 | 0.00 | 0.06 | 86 | 1001.8 |
| 20260501231017 | 73 | 332 | 0.0 | 0.0 | 0.00 | 0.00 | 0.06 | 86 | 1001.8 |
| 20260501230908 | 73 | 305 | 0.0 | 0.0 | 0.00 | 0.00 | 0.06 | 86 | 1001.8 |
| 20260501230812 | 73 | 304 | 0.0 | 0.0 | 0.00 | 0.00 | 0.06 | 86 | 1001.8 |
| 20260501230705 | 74 | 294 | 0.0 | 0.0 | 0.00 | 0.00 | 0.06 | 86 | 1001.8 |
| 20260501230627 | 74 | 26 | 0.0 | 0.0 | 0.00 | 0.00 | 0.06 | 86 | 1001.8 |
| 20260501230518 | 74 | 345 | 0.0 | 0.0 | 0.00 | 0.00 | 0.06 | 86 | 1001.8 |
| 20260501230422 | 74 | 321 | 0.0 | 0.0 | 0.00 | 0.00 | 0.06 | 87 | 1001.8 |
| 20260501230337 | 74 | 306 | 0.0 | 0.0 | 0.00 | 0.00 | 0.06 | 87 | 1001.8 |
| 20260501230200 | 74 | 306 | 0.0 | 0.0 | 0.00 | 0.00 | 0.06 | 86 | 1001.8 |
| 20260501230113 | 74 | 306 | 0.0 | 0.0 | 0.00 | 0.00 | 0.06 | 86 | 1001.4 |
| 20260501230014 | 74 | 291 | 0.0 | 0.0 | 0.00 | 0.00 | 0.06 | 86 | 1001.4 |
| 20260501225906 | 74 | 335 | 0.0 | 0.0 | 0.00 | 0.00 | 0.06 | 86 | 1001.4 |
| 20260501225830 | 74 | 305 | 0.0 | 0.0 | 0.00 | 0.00 | 0.06 | 86 | 1001.4 |
| 20260501225701 | 74 | 321 | 0.0 | 0.0 | 0.00 | 0.00 | 0.06 | 86 | 1001.4 |
| 20260501225624 | 74 | 17 | 0.0 | 0.0 | 0.00 | 0.00 | 0.06 | 86 | 1001.4 |
| 20260501225504 | 74 | 242 | 0.0 | 0.0 | 0.00 | 0.00 | 0.06 | 86 | 1001.4 |
| 20260501225422 | 74 | 242 | 0.0 | 0.0 | 0.00 | 0.00 | 0.06 | 87 | 1001.4 |
| 20260501225322 | 74 | 24 | 1.0 | 0.0 | 0.00 | 0.00 | 0.06 | 87 | 1001.4 |
| 20260501225215 | 74 | 350 | 0.0 | 0.0 | 0.00 | 0.00 | 0.06 | 87 | 1001.4 |
| 20260501225107 | 74 | 300 | 0.0 | 0.0 | 0.00 | 0.00 | 0.06 | 87 | 1001.4 |
| 20260501225026 | 74 | 303 | 0.0 | 0.0 | 0.00 | 0.00 | 0.06 | 87 | 1001.4 |
| 20260501224926 | 74 | 294 | 0.0 | 0.0 | 0.00 | 0.00 | 0.06 | 87 | 1001.4 |
| 20260501224800 | 74 | 300 | 0.0 | 0.0 | 0.00 | 0.00 | 0.06 | 87 | 1001.4 |
| 20260501224727 | 74 | 311 | 0.0 | 0.0 | 0.00 | 0.00 | 0.06 | 87 | 1001.4 |
| 20260501224637 | 75 | 294 | 0.0 | 0.0 | 0.00 | 0.00 | 0.06 | 87 | 1001.0 |
| 20260501224516 | 75 | 290 | 0.0 | 0.0 | 0.00 | 0.00 | 0.06 | 87 | 1001.0 |
| 20260501224411 | 75 | 299 | 0.0 | 0.0 | 0.00 | 0.00 | 0.06 | 87 | 1001.0 |
| 20260501224304 | 75 | 284 | 0.0 | 0.0 | 0.00 | 0.00 | 0.06 | 87 | 1001.0 |
| 20260501224205 | 75 | 298 | 0.0 | 0.0 | 0.00 | 0.00 | 0.06 | 87 | 1001.0 |
| 20260501224117 | 75 | 293 | 0.0 | 0.0 | 0.00 | 0.00 | 0.06 | 87 | 1001.0 |
| 20260501224022 | 75 | 299 | 0.0 | 0.0 | 0.00 | 0.00 | 0.06 | 87 | 1001.0 |
| 20260501223920 | 75 | 299 | 0.0 | 0.0 | 0.00 | 0.00 | 0.06 | 86 | 1001.0 |
| 20260501223825 | 75 | 300 | 0.0 | 0.0 | 0.00 | 0.00 | 0.06 | 86 | 1001.0 |
| 20260501223701 | 75 | 294 | 0.0 | 0.0 | 0.00 | 0.00 | 0.06 | 86 | 1001.0 |
| 20260501223615 | 75 | 296 | 0.0 | 0.0 | 0.00 | 0.00 | 0.06 | 86 | 1001.0 |
| 20260501223516 | 75 | 300 | 0.0 | 0.0 | 0.00 | 0.00 | 0.06 | 86 | 1001.0 |
| 20260501223408 | 75 | 347 | 0.0 | 0.0 | 0.00 | 0.00 | 0.06 | 86 | 1001.0 |
| 20260501223330 | 75 | 300 | 0.0 | 0.0 | 0.00 | 0.00 | 0.06 | 86 | 1001.0 |
| 20260501223220 | 75 | 346 | 0.0 | 0.0 | 0.00 | 0.00 | 0.06 | 86 | 1001.0 |
| 20260501223129 | 75 | 302 | 0.0 | 0.0 | 0.00 | 0.00 | 0.06 | 85 | 1001.0 |
| 20260501223048 | 75 | 296 | 0.0 | 0.0 | 0.00 | 0.00 | 0.06 | 85 | 1000.9 |
| 20260501222942 | 75 | 296 | 0.0 | 0.0 | 0.00 | 0.00 | 0.06 | 85 | 1000.9 |
| 20260501222821 | 75 | 279 | 0.0 | 0.0 | 0.00 | 0.00 | 0.06 | 85 | 1000.9 |
| 20260501222716 | 75 | 307 | 0.0 | 0.0 | 0.00 | 0.00 | 0.06 | 85 | 1000.9 |
| 20260501222610 | 76 | 303 | 0.0 | 0.0 | 0.00 | 0.00 | 0.06 | 85 | 1000.9 |
| 20260501222510 | 76 | 314 | 0.0 | 0.0 | 0.00 | 0.00 | 0.06 | 85 | 1000.9 |
| 20260501222404 | 76 | 303 | 0.0 | 0.0 | 0.00 | 0.00 | 0.06 | 85 | 1000.9 |
| 20260501222329 | 76 | 297 | 0.0 | 0.0 | 0.00 | 0.00 | 0.06 | 85 | 1000.9 |
| 20260501222204 | 76 | 296 | 0.0 | 0.0 | 0.00 | 0.00 | 0.06 | 85 | 1000.9 |
| 20260501222125 | 76 | 296 | 0.0 | 0.0 | 0.00 | 0.00 | 0.06 | 85 | 1000.9 |
| 20260501222018 | 76 | 308 | 0.0 | 0.0 | 0.00 | 0.00 | 0.06 | 85 | 1000.9 |
| 20260501221917 | 76 | 308 | 0.0 | 0.0 | 0.00 | 0.00 | 0.06 | 85 | 1000.9 |
| 20260501221812 | 76 | 301 | 0.0 | 0.0 | 0.00 | 0.00 | 0.06 | 85 | 1000.9 |
| 20260501221704 | 76 | 301 | 0.0 | 0.0 | 0.00 | 0.00 | 0.06 | 85 | 1000.9 |
| 20260501221628 | 75 | 301 | 0.0 | 0.0 | 0.00 | 0.00 | 0.06 | 85 | 1000.7 |
| 20260501221513 | 75 | 297 | 1.0 | 0.0 | 0.00 | 0.00 | 0.06 | 85 | 1000.7 |
| 20260501221407 | 75 | 289 | 1.0 | 0.0 | 0.00 | 0.00 | 0.06 | 85 | 1000.7 |
| 20260501221301 | 75 | 289 | 1.0 | 0.0 | 0.00 | 0.00 | 0.06 | 85 | 1000.7 |
| 20260501221206 | 75 | 298 | 1.0 | 0.0 | 0.00 | 0.00 | 0.06 | 85 | 1000.7 |
| 20260501221117 | 75 | 293 | 1.0 | 0.0 | 0.00 | 0.00 | 0.06 | 85 | 1000.7 |
| 20260501221019 | 75 | 295 | 1.0 | 0.0 | 0.00 | 0.00 | 0.06 | 85 | 1000.7 |
| 20260501220930 | 75 | 296 | 1.0 | 0.0 | 0.00 | 0.00 | 0.06 | 85 | 1000.7 |
| 20260501220810 | 75 | 297 | 2.0 | 0.0 | 0.00 | 0.00 | 0.06 | 84 | 1000.7 |
| 20260501220706 | 75 | 295 | 2.0 | 0.0 | 0.00 | 0.00 | 0.06 | 84 | 1000.7 |
| 20260501220627 | 75 | 296 | 2.0 | 0.0 | 0.00 | 0.00 | 0.06 | 84 | 1000.7 |
| 20260501220517 | 76 | 300 | 2.0 | 0.0 | 0.00 | 0.00 | 0.06 | 84 | 1000.7 |
| 20260501220420 | 76 | 300 | 2.0 | 0.0 | 0.00 | 0.00 | 0.06 | 84 | 1000.7 |
| 20260501220314 | 76 | 292 | 2.0 | 0.0 | 0.00 | 0.00 | 0.06 | 84 | 1000.7 |
| 20260501220208 | 76 | 299 | 2.0 | 0.0 | 0.00 | 0.00 | 0.06 | 83 | 1000.7 |
| 20260501220131 | 76 | 300 | 2.0 | 0.0 | 0.00 | 0.00 | 0.06 | 83 | 1000.3 |
| 20260501220031 | 76 | 302 | 2.0 | 0.0 | 0.00 | 0.00 | 0.06 | 83 | 1000.3 |
| 20260501215907 | 76 | 294 | 2.0 | 0.0 | 0.00 | 0.00 | 0.06 | 84 | 1000.3 |
| 20260501215819 | 76 | 294 | 2.0 | 0.0 | 0.00 | 0.00 | 0.06 | 83 | 1000.3 |
| 20260501215721 | 77 | 304 | 2.0 | 0.0 | 0.00 | 0.00 | 0.06 | 83 | 1000.4 |
| 20260501215637 | 77 | 296 | 1.0 | 0.0 | 0.00 | 0.00 | 0.06 | 83 | 1000.4 |
| 20260501215536 | 77 | 295 | 1.0 | 0.0 | 0.00 | 0.00 | 0.06 | 83 | 1000.4 |
| 20260501215408 | 77 | 294 | 1.0 | 0.0 | 0.00 | 0.00 | 0.06 | 83 | 1000.4 |
| 20260501215313 | 77 | 298 | 1.0 | 0.0 | 0.00 | 0.00 | 0.06 | 83 | 1000.4 |
| 20260501215204 | 77 | 299 | 1.0 | 0.0 | 0.00 | 0.00 | 0.06 | 83 | 1000.4 |
| 20260501215102 | 77 | 290 | 1.0 | 0.0 | 0.00 | 0.00 | 0.06 | 84 | 1000.4 |
| 20260501215003 | 77 | 295 | 1.0 | 0.0 | 0.00 | 0.00 | 0.06 | 83 | 1000.4 |
| 20260501214917 | 77 | 295 | 0.0 | 0.0 | 0.00 | 0.00 | 0.06 | 83 | 1000.4 |
| 20260501214821 | 77 | 312 | 0.0 | 0.0 | 0.00 | 0.00 | 0.06 | 84 | 1000.4 |
| 20260501214714 | 77 | 297 | 0.0 | 0.0 | 0.00 | 0.00 | 0.06 | 83 | 1000.4 |
| 20260501214635 | 77 | 297 | 0.0 | 0.0 | 0.00 | 0.00 | 0.06 | 84 | 1000.3 |
| 20260501214509 | 77 | 290 | 0.0 | 0.0 | 0.00 | 0.00 | 0.06 | 84 | 1000.3 |
| 20260501214405 | 77 | 287 | 0.0 | 0.0 | 0.00 | 0.00 | 0.06 | 84 | 1000.3 |
| 20260501214306 | 77 | 331 | 0.0 | 0.0 | 0.00 | 0.00 | 0.06 | 84 | 1000.3 |
| 20260501214229 | 77 | 296 | 0.0 | 0.0 | 0.00 | 0.00 | 0.06 | 84 | 1000.3 |
| 20260501214119 | 76 | 296 | 0.0 | 0.0 | 0.00 | 0.00 | 0.06 | 85 | 1000.3 |
| 20260501214011 | 76 | 288 | 0.0 | 0.0 | 0.00 | 0.00 | 0.06 | 84 | 1000.3 |
| 20260501213901 | 76 | 298 | 0.0 | 0.0 | 0.00 | 0.00 | 0.06 | 84 | 1000.3 |
| 20260501213829 | 76 | 295 | 0.0 | 0.0 | 0.00 | 0.00 | 0.06 | 85 | 1000.3 |
| 20260501213748 | 76 | 282 | 1.0 | 0.0 | 0.00 | 0.00 | 0.06 | 85 | 1000.3 |
| 20260501213111 | 76 | 291 | 2.0 | 0.0 | 0.00 | 0.00 | 0.06 | 85 | 1000.3 |
| 20260501213005 | 76 | 295 | 2.0 | 0.0 | 0.00 | 0.00 | 0.06 | 84 | 1000.3 |
| 20260501212927 | 76 | 298 | 2.0 | 0.0 | 0.00 | 0.00 | 0.06 | 84 | 1000.3 |
| 20260501212830 | 76 | 298 | 2.0 | 0.0 | 0.00 | 0.00 | 0.06 | 84 | 1000.3 |
| 20260501212702 | 76 | 289 | 1.0 | 0.0 | 0.00 | 0.00 | 0.06 | 84 | 1000.3 |
| 20260501212613 | 76 | 301 | 1.0 | 0.0 | 0.00 | 0.00 | 0.06 | 84 | 1000.3 |
| 20260501212513 | 76 | 300 | 1.0 | 0.0 | 0.00 | 0.00 | 0.06 | 84 | 1000.3 |
| 20260501212404 | 76 | 293 | 0.0 | 0.0 | 0.00 | 0.00 | 0.06 | 84 | 1000.3 |
| 20260501212331 | 76 | 300 | 0.0 | 0.0 | 0.00 | 0.00 | 0.06 | 84 | 1000.3 |
| 20260501212203 | 76 | 296 | 0.0 | 0.0 | 0.00 | 0.00 | 0.06 | 85 | 1000.3 |
| 20260501212120 | 76 | 290 | 0.0 | 0.0 | 0.00 | 0.00 | 0.06 | 84 | 1000.3 |
| 20260501212021 | 76 | 298 | 0.0 | 0.0 | 0.00 | 0.00 | 0.06 | 84 | 1000.3 |
| 20260501211914 | 76 | 288 | 0.0 | 0.0 | 0.00 | 0.00 | 0.06 | 84 | 1000.3 |
| 20260501211808 | 76 | 296 | 0.0 | 0.0 | 0.00 | 0.00 | 0.06 | 84 | 1000.3 |
| 20260501211726 | 76 | 296 | 0.0 | 0.0 | 0.00 | 0.00 | 0.06 | 85 | 1000.3 |
| 20260501211626 | 76 | 294 | 0.0 | 0.0 | 0.00 | 0.00 | 0.06 | 85 | 1000.3 |
| 20260501211502 | 76 | 291 | 0.0 | 0.0 | 0.00 | 0.00 | 0.06 | 85 | 1000.4 |
| 20260501211414 | 76 | 291 | 1.0 | 0.0 | 0.00 | 0.00 | 0.06 | 86 | 1000.4 |
| 20260501211322 | 76 | 290 | 1.0 | 0.0 | 0.00 | 0.00 | 0.06 | 86 | 1000.4 |
| 20260501211248 | 76 | 290 | 1.0 | 0.0 | 0.00 | 0.00 | 0.06 | 86 | 1000.4 |
| 20260501211119 | 76 | 294 | 1.0 | 0.0 | 0.00 | 0.00 | 0.06 | 86 | 1000.4 |
| 20260501211016 | 75 | 294 | 2.0 | 0.0 | 0.00 | 0.00 | 0.06 | 86 | 1000.4 |
| 20260501210937 | 75 | 294 | 3.0 | 0.0 | 0.00 | 0.00 | 0.06 | 86 | 1000.4 |
| 20260501210811 | 75 | 287 | 3.0 | 0.0 | 0.00 | 0.00 | 0.06 | 86 | 1000.4 |
| 20260501210714 | 75 | 294 | 4.0 | 0.0 | 0.00 | 0.00 | 0.06 | 86 | 1000.4 |
| 20260501210608 | 75 | 294 | 5.0 | 0.0 | 0.00 | 0.00 | 0.06 | 86 | 1000.4 |
| 20260501210516 | 75 | 288 | 5.0 | 0.0 | 0.00 | 0.00 | 0.06 | 86 | 1000.4 |
| 20260501210409 | 75 | 294 | 5.0 | 0.0 | 0.00 | 0.00 | 0.06 | 86 | 1000.4 |
| 20260501210331 | 75 | 295 | 5.0 | 0.0 | 0.00 | 0.00 | 0.06 | 87 | 1000.4 |
| 20260501210206 | 75 | 294 | 6.0 | 0.0 | 0.00 | 0.00 | 0.06 | 86 | 1000.4 |
| 20260501210128 | 75 | 295 | 6.0 | 0.0 | 0.00 | 0.00 | 0.06 | 85 | 1000.4 |
| 20260501205959 | 75 | 302 | 5.0 | 0.0 | 0.00 | 0.00 | 0.06 | 86 | 1000.3 |
| 20260501205914 | 75 | 294 | 4.0 | 0.0 | 0.00 | 0.00 | 0.06 | 86 | 1000.3 |
| 20260501205819 | 75 | 297 | 4.0 | 0.0 | 0.00 | 0.00 | 0.06 | 86 | 1000.3 |
| 20260501205710 | 75 | 296 | 3.0 | 0.0 | 0.00 | 0.00 | 0.06 | 86 | 1000.3 |
| 20260501205631 | 75 | 297 | 3.0 | 0.0 | 0.00 | 0.00 | 0.06 | 86 | 1000.3 |
| 20260501205503 | 75 | 300 | 2.0 | 0.0 | 0.00 | 0.00 | 0.06 | 86 | 1000.3 |
| 20260501205418 | 75 | 294 | 2.0 | 0.0 | 0.00 | 0.00 | 0.06 | 86 | 1000.3 |
| 20260501205317 | 75 | 294 | 2.0 | 0.0 | 0.00 | 0.00 | 0.06 | 86 | 1000.3 |
| 20260501205211 | 75 | 294 | 1.0 | 0.0 | 0.00 | 0.00 | 0.06 | 86 | 1000.3 |
| 20260501205111 | 75 | 304 | 1.0 | 0.0 | 0.00 | 0.00 | 0.06 | 86 | 1000.3 |
| 20260501205013 | 75 | 296 | 2.0 | 0.0 | 0.00 | 0.00 | 0.06 | 87 | 1000.3 |
| 20260501204928 | 75 | 294 | 2.0 | 0.0 | 0.00 | 0.00 | 0.06 | 87 | 1000.3 |
| 20260501204810 | 75 | 300 | 2.0 | 0.0 | 0.00 | 0.00 | 0.06 | 86 | 1000.3 |
| 20260501204703 | 75 | 292 | 2.0 | 0.0 | 0.00 | 0.00 | 0.06 | 86 | 1000.3 |
| 20260501204625 | 75 | 292 | 2.0 | 0.0 | 0.00 | 0.00 | 0.06 | 87 | 1000.3 |
| 20260501204522 | 75 | 289 | 3.0 | 0.0 | 0.00 | 0.00 | 0.06 | 86 | 1000.5 |
| 20260501204443 | 75 | 293 | 3.0 | 0.0 | 0.00 | 0.00 | 0.06 | 86 | 1000.5 |
| 20260501204319 | 75 | 301 | 4.0 | 0.0 | 0.00 | 0.00 | 0.06 | 86 | 1000.5 |
| 20260501204209 | 75 | 302 | 4.0 | 0.0 | 0.00 | 0.00 | 0.06 | 87 | 1000.5 |
| 20260501204111 | 75 | 297 | 5.0 | 0.0 | 0.00 | 0.00 | 0.06 | 87 | 1000.5 |
| 20260501204006 | 75 | 292 | 4.0 | 0.0 | 0.00 | 0.00 | 0.06 | 87 | 1000.5 |
| 20260501203928 | 75 | 292 | 4.0 | 0.0 | 0.00 | 0.00 | 0.06 | 87 | 1000.5 |
| 20260501203840 | 75 | 304 | 4.0 | 0.0 | 0.00 | 0.00 | 0.06 | 87 | 1000.5 |
| 20260501203740 | 75 | 296 | 4.0 | 0.0 | 0.00 | 0.00 | 0.06 | 86 | 1000.5 |
| 20260501203609 | 75 | 296 | 3.0 | 0.0 | 0.00 | 0.00 | 0.06 | 87 | 1000.5 |
| 20260501203517 | 75 | 293 | 3.0 | 0.0 | 0.00 | 0.00 | 0.06 | 87 | 1000.5 |
| 20260501203438 | 75 | 298 | 3.0 | 0.0 | 0.00 | 0.00 | 0.06 | 87 | 1000.5 |
| 20260501203307 | 75 | 297 | 3.0 | 0.0 | 0.00 | 0.00 | 0.06 | 87 | 1000.5 |
| 20260501203234 | 75 | 294 | 2.0 | 0.0 | 0.00 | 0.00 | 0.06 | 86 | 1000.5 |
| 20260501203106 | 75 | 293 | 3.0 | 0.0 | 0.00 | 0.00 | 0.06 | 87 | 1000.9 |
| 20260501203001 | 75 | 66 | 3.0 | 0.0 | 0.00 | 0.00 | 0.06 | 86 | 1000.9 |
| 20260501202924 | 75 | 302 | 3.0 | 0.0 | 0.00 | 0.00 | 0.06 | 86 | 1000.9 |
| 20260501202848 | 75 | 291 | 2.0 | 0.0 | 0.00 | 0.00 | 0.06 | 88 | 1000.9 |
| 20260501202703 | 75 | 292 | 2.0 | 0.0 | 0.00 | 0.00 | 0.06 | 87 | 1000.9 |
| 20260501202615 | 75 | 298 | 2.0 | 0.0 | 0.00 | 0.00 | 0.06 | 87 | 1000.9 |
| 20260501202521 | 75 | 300 | 2.0 | 0.0 | 0.00 | 0.00 | 0.06 | 86 | 1000.9 |
| 20260501202419 | 75 | 301 | 2.0 | 0.0 | 0.00 | 0.00 | 0.06 | 86 | 1000.9 |
| 20260501202340 | 75 | 294 | 2.0 | 0.0 | 0.00 | 0.00 | 0.06 | 88 | 1000.9 |
| 20260501202240 | 75 | 296 | 2.0 | 0.0 | 0.00 | 0.00 | 0.06 | 87 | 1000.9 |
| 20260501202112 | 75 | 295 | 1.0 | 0.0 | 0.00 | 0.00 | 0.06 | 87 | 1000.9 |
| 20260501202038 | 75 | 292 | 1.0 | 0.0 | 0.00 | 0.00 | 0.06 | 88 | 1000.9 |
| 20260501201932 | 75 | 296 | 1.0 | 0.0 | 0.00 | 0.00 | 0.06 | 88 | 1000.9 |
| 20260501201813 | 75 | 297 | 1.0 | 0.0 | 0.00 | 0.00 | 0.06 | 88 | 1000.9 |
| 20260501201707 | 75 | 297 | 1.0 | 0.0 | 0.00 | 0.00 | 0.06 | 88 | 1000.9 |
| 20260501201626 | 75 | 295 | 1.0 | 0.0 | 0.00 | 0.00 | 0.06 | 88 | 1000.9 |
| 20260501201504 | 75 | 298 | 2.0 | 0.0 | 0.00 | 0.00 | 0.06 | 88 | 1000.9 |
| 20260501201359 | 75 | 298 | 2.0 | 0.0 | 0.00 | 0.00 | 0.06 | 89 | 1000.9 |
| 20260501201327 | 75 | 295 | 2.0 | 0.0 | 0.00 | 0.00 | 0.06 | 89 | 1000.9 |
| 20260501201221 | 75 | 300 | 2.0 | 0.0 | 0.00 | 0.00 | 0.06 | 88 | 1000.9 |
| 20260501201122 | 75 | 288 | 3.0 | 0.0 | 0.00 | 0.00 | 0.06 | 89 | 1000.9 |
| 20260501200958 | 75 | 300 | 4.0 | 0.0 | 0.00 | 0.00 | 0.06 | 88 | 1000.9 |
| 20260501200912 | 75 | 295 | 4.0 | 0.0 | 0.00 | 0.00 | 0.06 | 89 | 1000.9 |
| 20260501200817 | 75 | 289 | 4.0 | 0.0 | 0.00 | 0.00 | 0.06 | 88 | 1000.9 |
| 20260501200709 | 75 | 297 | 5.0 | 0.0 | 0.00 | 0.00 | 0.06 | 88 | 1000.9 |
| 20260501200604 | 75 | 296 | 5.0 | 0.0 | 0.00 | 0.00 | 0.06 | 89 | 1000.9 |
| 20260501200506 | 75 | 298 | 5.0 | 0.0 | 0.00 | 0.00 | 0.06 | 89 | 1000.9 |
| 20260501200419 | 75 | 300 | 4.0 | 0.0 | 0.00 | 0.00 | 0.06 | 89 | 1000.9 |
| 20260501200325 | 75 | 294 | 4.0 | 0.0 | 0.00 | 0.00 | 0.06 | 89 | 1000.9 |
| 20260501200218 | 75 | 290 | 4.0 | 0.0 | 0.00 | 0.00 | 0.06 | 89 | 1000.9 |
| 20260501200121 | 75 | 299 | 4.0 | 0.0 | 0.00 | 0.00 | 0.06 | 89 | 1001.0 |
| 20260501200029 | 75 | 295 | 4.0 | 0.0 | 0.00 | 0.00 | 0.06 | 89 | 1001.0 |
| 20260501195922 | 75 | 294 | 5.0 | 0.0 | 0.00 | 0.00 | 0.06 | 88 | 1001.0 |
| 20260501195815 | 75 | 292 | 5.0 | 0.0 | 0.00 | 0.00 | 0.06 | 89 | 1001.0 |
| 20260501195718 | 75 | 285 | 5.0 | 0.0 | 0.00 | 0.00 | 0.06 | 88 | 1001.0 |
| 20260501195608 | 75 | 298 | 4.0 | 0.0 | 0.00 | 0.00 | 0.06 | 88 | 1001.0 |
| 20260501195540 | 76 | 294 | 5.0 | 0.0 | 0.00 | 0.00 | 0.06 | 87 | 1001.0 |
| 20260501195412 | 76 | 296 | 5.0 | 0.0 | 0.00 | 0.00 | 0.06 | 88 | 1001.0 |
| 20260501195306 | 76 | 288 | 4.0 | 0.0 | 0.00 | 0.00 | 0.06 | 88 | 1001.0 |
| 20260501195227 | 76 | 288 | 4.0 | 0.0 | 0.00 | 0.00 | 0.06 | 88 | 1001.0 |
| 20260501195126 | 76 | 294 | 4.0 | 0.0 | 0.00 | 0.00 | 0.06 | 88 | 1001.0 |
| 20260501195020 | 76 | 288 | 4.0 | 0.0 | 0.00 | 0.00 | 0.06 | 88 | 1001.0 |
| 20260501194927 | 76 | 295 | 4.0 | 0.0 | 0.00 | 0.00 | 0.06 | 88 | 1001.0 |
| 20260501194819 | 76 | 303 | 4.0 | 0.0 | 0.00 | 0.00 | 0.06 | 89 | 1001.0 |
| 20260501194717 | 76 | 293 | 4.0 | 0.0 | 0.00 | 0.00 | 0.06 | 88 | 1001.0 |
| 20260501194618 | 76 | 297 | 4.0 | 0.0 | 0.00 | 0.00 | 0.06 | 89 | 1001.0 |
| 20260501194509 | 76 | 288 | 4.0 | 0.0 | 0.00 | 0.00 | 0.06 | 89 | 1001.0 |
| 20260501194405 | 76 | 297 | 4.0 | 0.0 | 0.00 | 0.00 | 0.06 | 88 | 1001.0 |
| 20260501194306 | 76 | 305 | 5.0 | 0.0 | 0.00 | 0.00 | 0.06 | 90 | 1001.0 |
| 20260501194221 | 76 | 292 | 5.0 | 0.0 | 0.00 | 0.00 | 0.06 | 89 | 1001.0 |
| 20260501194121 | 76 | 296 | 4.0 | 0.0 | 0.00 | 0.00 | 0.06 | 88 | 1001.0 |
| 20260501194001 | 76 | 300 | 3.0 | 0.0 | 0.00 | 0.00 | 0.06 | 88 | 1001.0 |
| 20260501193914 | 76 | 298 | 3.0 | 0.0 | 0.00 | 0.00 | 0.06 | 89 | 1001.0 |
| 20260501193815 | 76 | 292 | 3.0 | 0.0 | 0.00 | 0.00 | 0.06 | 89 | 1001.0 |
| 20260501193706 | 76 | 295 | 2.0 | 0.0 | 0.00 | 0.00 | 0.06 | 89 | 1001.0 |
| 20260501193604 | 76 | 294 | 2.0 | 0.0 | 0.00 | 0.00 | 0.06 | 90 | 1001.0 |
| 20260501193523 | 76 | 298 | 1.0 | 0.0 | 0.00 | 0.00 | 0.06 | 90 | 1001.0 |
| 20260501193429 | 76 | 290 | 1.0 | 0.0 | 0.00 | 0.00 | 0.06 | 89 | 1001.0 |
| 20260501193319 | 76 | 300 | 0.0 | 0.0 | 0.00 | 0.00 | 0.06 | 91 | 1001.0 |
| 20260501193225 | 76 | 304 | 0.0 | 0.0 | 0.00 | 0.00 | 0.06 | 91 | 1001.0 |
| 20260501193120 | 75 | 296 | 0.0 | 0.0 | 0.00 | 0.00 | 0.06 | 91 | 1001.1 |
| 20260501193047 | 75 | 289 | 0.0 | 0.0 | 0.00 | 0.00 | 0.06 | 91 | 1001.1 |
| 20260501192916 | 75 | 296 | 0.0 | 0.0 | 0.00 | 0.00 | 0.06 | 91 | 1001.1 |
| 20260501192815 | 75 | 295 | 0.0 | 0.0 | 0.00 | 0.00 | 0.06 | 91 | 1001.1 |
| 20260501192715 | 75 | 294 | 0.0 | 0.0 | 0.00 | 0.00 | 0.06 | 91 | 1001.1 |
| 20260501192610 | 75 | 298 | 0.0 | 0.0 | 0.00 | 0.00 | 0.06 | 92 | 1001.1 |
| 20260501192506 | 75 | 294 | 0.0 | 0.0 | 0.00 | 0.00 | 0.06 | 91 | 1001.1 |
| 20260501192406 | 75 | 297 | 0.0 | 0.0 | 0.00 | 0.00 | 0.06 | 91 | 1001.1 |
| 20260501192322 | 75 | 289 | 0.0 | 0.0 | 0.00 | 0.00 | 0.06 | 91 | 1001.1 |
| 20260501192223 | 75 | 296 | 0.0 | 0.0 | 0.00 | 0.00 | 0.06 | 92 | 1001.1 |
| 20260501192138 | 75 | 287 | 0.0 | 0.0 | 0.00 | 0.00 | 0.06 | 91 | 1001.1 |
| 20260501192044 | 75 | 284 | 0.0 | 0.0 | 0.00 | 0.00 | 0.06 | 91 | 1001.1 |
| 20260501191924 | 75 | 291 | 0.0 | 0.0 | 0.00 | 0.00 | 0.06 | 91 | 1001.1 |
| 20260501191814 | 75 | 294 | 0.0 | 0.0 | 0.00 | 0.00 | 0.06 | 91 | 1001.1 |
| 20260501191711 | 75 | 296 | 0.0 | 0.0 | 0.00 | 0.00 | 0.06 | 91 | 1001.1 |
| 20260501191613 | 75 | 296 | 0.0 | 0.0 | 0.00 | 0.00 | 0.06 | 91 | 1001.2 |
| 20260501191505 | 75 | 294 | 0.0 | 0.0 | 0.00 | 0.00 | 0.06 | 91 | 1001.2 |
| 20260501191400 | 75 | 294 | 0.0 | 0.0 | 0.00 | 0.00 | 0.06 | 91 | 1001.2 |
| 20260501191324 | 75 | 293 | 0.0 | 0.0 | 0.00 | 0.00 | 0.06 | 91 | 1001.2 |
| 20260501191247 | 75 | 297 | 0.0 | 0.0 | 0.00 | 0.00 | 0.06 | 92 | 1001.2 |
| 20260501191119 | 75 | 289 | 0.0 | 0.0 | 0.00 | 0.00 | 0.06 | 92 | 1001.2 |
| 20260501191012 | 75 | 292 | 1.0 | 0.0 | 0.00 | 0.00 | 0.06 | 92 | 1001.2 |
| 20260501190918 | 75 | 294 | 1.0 | 0.0 | 0.00 | 0.00 | 0.06 | 92 | 1001.2 |
| 20260501190811 | 75 | 290 | 2.0 | 0.0 | 0.00 | 0.00 | 0.06 | 91 | 1001.2 |
| 20260501190701 | 75 | 296 | 2.0 | 0.0 | 0.00 | 0.00 | 0.06 | 92 | 1001.2 |
| 20260501190629 | 75 | 281 | 2.0 | 0.0 | 0.00 | 0.00 | 0.06 | 92 | 1001.2 |
| 20260501190529 | 75 | 295 | 2.0 | 0.0 | 0.00 | 0.00 | 0.06 | 92 | 1001.2 |
| 20260501190401 | 75 | 296 | 2.0 | 0.0 | 0.00 | 0.00 | 0.06 | 92 | 1001.2 |
| 20260501190313 | 75 | 296 | 2.0 | 0.0 | 0.00 | 0.00 | 0.06 | 92 | 1001.2 |
| 20260501190224 | 75 | 300 | 2.0 | 0.0 | 0.00 | 0.00 | 0.06 | 92 | 1001.2 |
| 20260501190116 | 75 | 302 | 2.0 | 0.0 | 0.00 | 0.00 | 0.06 | 92 | 1000.9 |
| 20260501190007 | 75 | 298 | 2.0 | 0.0 | 0.00 | 0.00 | 0.06 | 92 | 1000.9 |
| 20260501185911 | 75 | 289 | 1.0 | 0.0 | 0.00 | 0.00 | 0.06 | 92 | 1000.9 |
| 20260501185803 | 75 | 291 | 1.0 | 0.0 | 0.00 | 0.00 | 0.06 | 92 | 1000.9 |
| 20260501185730 | 75 | 296 | 0.0 | 0.0 | 0.00 | 0.00 | 0.06 | 92 | 1000.9 |
| 20260501185620 | 75 | 292 | 0.0 | 0.0 | 0.00 | 0.00 | 0.06 | 92 | 1000.9 |
| 20260501185520 | 75 | 288 | 1.0 | 0.0 | 0.00 | 0.00 | 0.06 | 93 | 1000.9 |
| 20260501185415 | 75 | 300 | 1.0 | 0.0 | 0.00 | 0.00 | 0.06 | 94 | 1000.9 |
| 20260501185307 | 75 | 292 | 2.0 | 0.0 | 0.00 | 0.00 | 0.06 | 95 | 1000.9 |
| 20260501185211 | 74 | 290 | 2.0 | 0.0 | 0.00 | 0.00 | 0.06 | 94 | 1000.9 |
| 20260501185101 | 74 | 289 | 3.0 | 0.0 | 0.00 | 0.00 | 0.06 | 94 | 1000.9 |
| 20260501185024 | 74 | 298 | 3.0 | 0.0 | 0.00 | 0.00 | 0.06 | 94 | 1000.9 |
| 20260501184921 | 74 | 294 | 3.0 | 0.0 | 0.00 | 0.00 | 0.06 | 95 | 1000.9 |
| 20260501184823 | 74 | 294 | 4.0 | 0.0 | 0.00 | 0.00 | 0.06 | 94 | 1000.9 |
| 20260501184702 | 74 | 298 | 4.0 | 0.0 | 0.00 | 0.00 | 0.06 | 94 | 1000.9 |
| 20260501184613 | 74 | 297 | 4.0 | 0.0 | 0.00 | 0.00 | 0.06 | 94 | 1001.4 |
| 20260501184515 | 73 | 286 | 4.0 | 0.0 | 0.00 | 0.00 | 0.06 | 94 | 1001.4 |
| 20260501184426 | 74 | 294 | 4.0 | 0.0 | 0.00 | 0.00 | 0.06 | 95 | 1001.4 |
| 20260501184307 | 73 | 297 | 4.0 | 0.0 | 0.00 | 0.00 | 0.06 | 95 | 1001.4 |
| 20260501184219 | 73 | 299 | 3.0 | 0.0 | 0.00 | 0.00 | 0.06 | 95 | 1001.4 |
| 20260501184120 | 73 | 292 | 3.0 | 0.0 | 0.00 | 0.00 | 0.06 | 95 | 1001.4 |
| 20260501184018 | 73 | 294 | 3.0 | 0.0 | 0.00 | 0.00 | 0.06 | 95 | 1001.4 |
| 20260501183924 | 73 | 299 | 3.0 | 0.0 | 0.00 | 0.00 | 0.06 | 96 | 1001.4 |
| 20260501183836 | 73 | 296 | 2.0 | 0.0 | 0.00 | 0.00 | 0.06 | 96 | 1001.4 |
| 20260501183717 | 73 | 294 | 2.0 | 0.0 | 0.00 | 0.00 | 0.06 | 95 | 1001.4 |
| 20260501183610 | 73 | 298 | 1.0 | 0.0 | 0.00 | 0.00 | 0.06 | 95 | 1001.4 |
| 20260501183531 | 72 | 293 | 1.0 | 0.0 | 0.00 | 0.00 | 0.06 | 95 | 1001.4 |
| 20260501183422 | 72 | 293 | 1.0 | 0.0 | 0.00 | 0.00 | 0.06 | 95 | 1001.4 |
| 20260501183322 | 72 | 294 | 1.0 | 0.0 | 0.00 | 0.00 | 0.06 | 95 | 1001.4 |
| 20260501183215 | 73 | 294 | 1.0 | 0.0 | 0.00 | 0.00 | 0.06 | 95 | 1001.4 |
| 20260501183127 | 72 | 303 | 1.0 | 0.0 | 0.00 | 0.00 | 0.06 | 95 | 1001.4 |
| 20260501183001 | 72 | 300 | 0.0 | 0.0 | 0.00 | 0.00 | 0.06 | 95 | 1001.8 |
| 20260501182913 | 72 | 292 | 0.0 | 0.0 | 0.00 | 0.00 | 0.06 | 96 | 1001.8 |
| 20260501182814 | 72 | 289 | 0.0 | 0.0 | 0.00 | 0.00 | 0.06 | 95 | 1001.8 |
| 20260501182707 | 72 | 296 | 0.0 | 0.0 | 0.00 | 0.00 | 0.06 | 96 | 1001.8 |
| 20260501182627 | 72 | 298 | 0.0 | 0.0 | 0.00 | 0.00 | 0.06 | 96 | 1001.8 |
| 20260501182503 | 72 | 297 | 0.0 | 0.0 | 0.00 | 0.00 | 0.06 | 96 | 1001.8 |
| 20260501182420 | 72 | 296 | 0.0 | 0.0 | 0.00 | 0.00 | 0.06 | 96 | 1001.8 |
| 20260501182320 | 72 | 294 | 0.0 | 0.0 | 0.00 | 0.00 | 0.06 | 96 | 1001.8 |
| 20260501182215 | 72 | 290 | 0.0 | 0.0 | 0.00 | 0.00 | 0.06 | 96 | 1001.8 |
| 20260501182135 | 72 | 294 | 0.0 | 0.0 | 0.00 | 0.00 | 0.06 | 96 | 1001.8 |
| 20260501182037 | 72 | 296 | 0.0 | 0.0 | 0.00 | 0.00 | 0.06 | 96 | 1001.8 |
| 20260501181911 | 72 | 287 | 0.0 | 0.0 | 0.00 | 0.00 | 0.06 | 96 | 1001.8 |
| 20260501181839 | 72 | 292 | 0.0 | 0.0 | 0.00 | 0.00 | 0.06 | 96 | 1001.8 |
| 20260501181738 | 72 | 292 | 0.0 | 0.0 | 0.00 | 0.00 | 0.06 | 96 | 1001.8 |
| 20260501181630 | 72 | 288 | 0.0 | 0.0 | 0.00 | 0.00 | 0.06 | 96 | 1001.9 |
| 20260501181517 | 72 | 298 | 0.0 | 0.0 | 0.00 | 0.00 | 0.06 | 96 | 1001.9 |
| 20260501181413 | 72 | 293 | 0.0 | 0.0 | 0.00 | 0.00 | 0.06 | 96 | 1001.9 |
| 20260501181315 | 72 | 301 | 0.0 | 0.0 | 0.00 | 0.00 | 0.06 | 96 | 1001.9 |
| 20260501181208 | 72 | 296 | 0.0 | 0.0 | 0.00 | 0.00 | 0.06 | 96 | 1001.9 |
| 20260501181130 | 72 | 296 | 0.0 | 0.0 | 0.00 | 0.00 | 0.06 | 96 | 1001.9 |
| 20260501181022 | 72 | 289 | 0.0 | 0.0 | 0.00 | 0.00 | 0.06 | 95 | 1001.9 |
| 20260501180914 | 72 | 290 | 0.0 | 0.0 | 0.00 | 0.00 | 0.06 | 95 | 1001.9 |
| 20260501180816 | 72 | 296 | 0.0 | 0.0 | 0.00 | 0.00 | 0.06 | 95 | 1001.9 |
| 20260501180711 | 72 | 283 | 0.0 | 0.0 | 0.00 | 0.00 | 0.06 | 95 | 1001.9 |
| 20260501180605 | 72 | 291 | 0.0 | 0.0 | 0.00 | 0.00 | 0.06 | 95 | 1001.9 |
| 20260501180505 | 72 | 299 | 0.0 | 0.0 | 0.00 | 0.00 | 0.06 | 95 | 1001.9 |
| 20260501180416 | 72 | 294 | 0.0 | 0.0 | 0.00 | 0.00 | 0.05 | 95 | 1001.9 |
| 20260501180317 | 72 | 294 | 0.0 | 0.0 | 0.00 | 0.00 | 0.05 | 95 | 1001.9 |
| 20260501180229 | 72 | 293 | 0.0 | 0.0 | 0.00 | 0.00 | 0.05 | 95 | 1001.9 |
| 20260501180108 | 72 | 292 | 0.0 | 0.0 | 0.00 | 0.00 | 0.05 | 95 | 1002.1 |
| 20260501180024 | 72 | 295 | 0.0 | 0.0 | 0.00 | 0.00 | 0.05 | 95 | 1002.1 |
| 20260501175913 | 72 | 294 | 0.0 | 0.0 | 0.00 | 0.00 | 0.04 | 95 | 1002.1 |
| 20260501175805 | 72 | 294 | 0.0 | 0.0 | 0.00 | 0.00 | 0.04 | 95 | 1002.1 |
| 20260501175704 | 72 | 296 | 0.0 | 0.0 | 0.00 | 0.00 | 0.04 | 95 | 1002.1 |
| 20260501175602 | 72 | 293 | 0.0 | 0.0 | 0.00 | 0.00 | 0.03 | 95 | 1002.1 |
| 20260501175526 | 72 | 294 | 0.0 | 0.0 | 0.00 | 0.00 | 0.03 | 95 | 1002.1 |
| 20260501175447 | 72 | 292 | 0.0 | 0.0 | 0.00 | 0.00 | 0.02 | 95 | 1002.1 |
| 20260501175318 | 72 | 296 | 0.0 | 0.0 | 0.00 | 0.00 | 0.02 | 95 | 1002.1 |
| 20260501175211 | 72 | 292 | 0.0 | 0.0 | 0.00 | 0.00 | 0.02 | 95 | 1002.1 |
| 20260501175132 | 72 | 295 | 0.0 | 0.0 | 0.00 | 0.00 | 0.02 | 95 | 1002.1 |
| 20260501175006 | 72 | 294 | 0.0 | 0.0 | 0.00 | 0.00 | 0.02 | 95 | 1002.1 |
| 20260501174913 | 72 | 288 | 0.0 | 0.0 | 0.00 | 0.00 | 0.02 | 95 | 1002.1 |
| 20260501174803 | 72 | 292 | 0.0 | 0.0 | 0.00 | 0.00 | 0.02 | 95 | 1002.1 |
| 20260501174700 | 72 | 281 | 0.0 | 0.0 | 0.00 | 0.00 | 0.02 | 95 | 1002.1 |
| 20260501174607 | 72 | 287 | 0.0 | 0.0 | 0.00 | 0.00 | 0.02 | 95 | 1002.4 |
| 20260501174520 | 72 | 290 | 0.0 | 0.0 | 0.00 | 0.00 | 0.02 | 95 | 1002.4 |
| 20260501174422 | 72 | 290 | 0.0 | 0.0 | 0.00 | 0.00 | 0.02 | 95 | 1002.4 |
| 20260501174301 | 72 | 277 | 0.0 | 0.0 | 0.00 | 0.00 | 0.02 | 95 | 1002.4 |
| 20260501174212 | 73 | 291 | 1.0 | 0.0 | 0.00 | 0.00 | 0.02 | 95 | 1002.4 |
| 20260501174113 | 73 | 293 | 1.0 | 0.0 | 0.00 | 0.00 | 0.02 | 95 | 1002.4 |
| 20260501174006 | 73 | 291 | 2.0 | 0.0 | 0.00 | 0.00 | 0.02 | 95 | 1002.4 |
| 20260501173927 | 73 | 287 | 2.0 | 0.0 | 0.00 | 0.00 | 0.02 | 95 | 1002.4 |
| 20260501173800 | 73 | 290 | 3.0 | 0.0 | 0.00 | 0.00 | 0.02 | 95 | 1002.4 |
| 20260501173712 | 73 | 294 | 3.0 | 0.0 | 0.00 | 0.00 | 0.02 | 95 | 1002.4 |
| 20260501173618 | 73 | 296 | 4.0 | 0.0 | 0.00 | 0.00 | 0.02 | 95 | 1002.4 |
| 20260501173509 | 73 | 296 | 4.0 | 0.0 | 0.00 | 0.00 | 0.02 | 95 | 1002.4 |
| 20260501173415 | 73 | 292 | 5.0 | 0.0 | 0.00 | 0.00 | 0.02 | 94 | 1002.4 |
| 20260501173314 | 73 | 292 | 5.0 | 0.0 | 0.00 | 0.00 | 0.02 | 94 | 1002.4 |
| 20260501173209 | 73 | 291 | 5.0 | 0.0 | 0.00 | 0.00 | 0.02 | 94 | 1002.4 |
| 20260501173129 | 73 | 289 | 5.0 | 0.0 | 0.00 | 0.00 | 0.02 | 94 | 1002.4 |
| 20260501173003 | 73 | 294 | 5.0 | 0.0 | 0.00 | 0.00 | 0.02 | 94 | 1001.9 |
| 20260501172928 | 73 | 286 | 5.0 | 0.0 | 0.00 | 0.00 | 0.02 | 94 | 1001.9 |
| 20260501172819 | 73 | 302 | 4.0 | 0.0 | 0.00 | 0.00 | 0.02 | 94 | 1001.9 |
| 20260501172716 | 73 | 300 | 3.0 | 0.0 | 0.00 | 0.00 | 0.02 | 94 | 1001.9 |
| 20260501172622 | 73 | 296 | 3.0 | 0.0 | 0.00 | 0.00 | 0.02 | 93 | 1001.9 |
| 20260501172511 | 73 | 297 | 2.0 | 0.0 | 0.00 | 0.00 | 0.01 | 93 | 1001.9 |
| 20260501172433 | 73 | 298 | 2.0 | 0.0 | 0.00 | 0.00 | 0.01 | 93 | 1001.9 |
| 20260501172204 | 74 | 296 | 0.0 | 0.0 | 0.00 | 0.00 | 0.01 | 91 | 1001.9 |
| 20260501172016 | 75 | 287 | 0.0 | 0.0 | 0.00 | 0.00 | 0.01 | 91 | 1001.9 |
| 20260501171910 | 75 | 300 | 0.0 | 0.0 | 0.00 | 0.00 | 0.01 | 90 | 1001.9 |
| 20260501171811 | 76 | 294 | 0.0 | 0.0 | 0.00 | 0.00 | 0.01 | 90 | 1001.9 |
| 20260501171701 | 76 | 294 | 0.0 | 0.0 | 0.00 | 0.00 | 0.01 | 90 | 1001.9 |
| 20260501171625 | 77 | 291 | 0.0 | 0.0 | 0.00 | 0.00 | 0.01 | 90 | 1001.9 |
| 20260501171520 | 77 | 292 | 0.0 | 0.0 | 0.00 | 0.00 | 0.01 | 91 | 1001.8 |
| 20260501171411 | 78 | 291 | 0.0 | 0.0 | 0.00 | 0.00 | 0.01 | 93 | 1001.9 |
| 20260501171311 | 78 | 269 | 0.0 | 0.0 | 0.00 | 0.00 | 0.01 | 93 | 1001.9 |
| 20260501171204 | 78 | 254 | 0.0 | 0.0 | 0.00 | 0.00 | 0.01 | 93 | 1001.9 |